Observation data for Welch on 09/10/2017      Previous  Date  Next       Current Mesonet Observations  Soil Data  Daily Summary Page  Observations in Plain Language
KWE2 100500Z 12005KT 16/10 A3022 RMK A01 T01600100  RH  068%=      5-min Rain = 0
KWE2 100501Z 12005KT 16/10 A3022 RMK A01 T01590100  RH  068%=      5-min Rain = 0
KWE2 100502Z 12005KT 16/10 A3022 RMK A01 T01590100  RH  068%=      5-min Rain = 0
KWE2 100503Z 12005KT 16/10 A3022 RMK A01 T01590100  RH  068%=      5-min Rain = 0
KWE2 100504Z 12005KT 16/10 A3022 RMK A01 T01580100  RH  068%=      5-min Rain = 0
KWE2 100505Z 12005KT 16/10 A3022 RMK A01 T01570100  RH  069%=      5-min Rain = 0
KWE2 100506Z 12006KT 16/10 A3022 RMK A01 T01570101  RH  069%=      5-min Rain = 0
KWE2 100507Z 12005KT 16/10 A3022 RMK A01 T01560100  RH  069%=      5-min Rain = 0
KWE2 100508Z 12006KT 16/10 A3022 RMK A01 T01550099  RH  069%=      5-min Rain = 0
KWE2 100509Z 12006KT 16/10 A3022 RMK A01 T01550098  RH  069%=      5-min Rain = 0
KWE2 100510Z 12005KT 16/10 A3022 RMK A01 T01550097  RH  068%=      5-min Rain = 0
KWE2 100511Z 12006KT 16/10 A3022 RMK A01 T01550097  RH  068%=      5-min Rain = 0
KWE2 100512Z 12006KT 16/10 A3022 RMK A01 T01550098  RH  068%=      5-min Rain = 0
KWE2 100513Z 12006KT 16/10 A3022 RMK A01 T01550098  RH  069%=      5-min Rain = 0
KWE2 100514Z 12006KT 16/10 A3022 RMK A01 T01550098  RH  069%=      5-min Rain = 0
KWE2 100515Z 12006KT 16/10 A3022 RMK A01 T01550099  RH  069%=      5-min Rain = 0
KWE2 100516Z 12006KT 16/10 A3022 RMK A01 T01550099  RH  069%=      5-min Rain = 0
KWE2 100517Z 12006KT 16/10 A3022 RMK A01 T01550099  RH  069%=      5-min Rain = 0
KWE2 100518Z 12006KT 16/10 A3022 RMK A01 T01550099  RH  069%=      5-min Rain = 0
KWE2 100519Z 12006KT 16/10 A3022 RMK A01 T01560099  RH  069%=      5-min Rain = 0
KWE2 100520Z 12006KT 16/10 A3022 RMK A01 T01560099  RH  069%=      5-min Rain = 0
KWE2 100521Z 12006KT 16/10 A3022 RMK A01 T01560099  RH  069%=      5-min Rain = 0
KWE2 100522Z 12006KT 16/10 A3022 RMK A01 T01550099  RH  069%=      5-min Rain = 0
KWE2 100523Z 12006KT 16/10 A3022 RMK A01 T01550099  RH  069%=      5-min Rain = 0
KWE2 100524Z 12006KT 15/10 A3022 RMK A01 T01540099  RH  070%=      5-min Rain = 0
KWE2 100525Z 12006KT 15/10 A3022 RMK A01 T01540099  RH  070%=      5-min Rain = 0
KWE2 100526Z 12006KT 15/10 A3022 RMK A01 T01540099  RH  070%=      5-min Rain = 0
KWE2 100527Z 12006KT 15/10 A3022 RMK A01 T01540100  RH  070%=      5-min Rain = 0
KWE2 100528Z 12006KT 15/10 A3022 RMK A01 T01530100  RH  070%=      5-min Rain = 0
KWE2 100529Z 13006KT 15/10 A3022 RMK A01 T01530100  RH  070%=      5-min Rain = 0
KWE2 100530Z 13006KT 15/10 A3022 RMK A01 T01530100  RH  071%=      5-min Rain = 0
KWE2 100531Z 13006KT 15/10 A3022 RMK A01 T01530100  RH  071%=      5-min Rain = 0
KWE2 100532Z 13006KT 15/10 A3022 RMK A01 T01530100  RH  071%=      5-min Rain = 0
KWE2 100533Z 13006KT 15/10 A3022 RMK A01 T01530100  RH  071%=      5-min Rain = 0
KWE2 100534Z 13006KT 15/10 A3022 RMK A01 T01520101  RH  071%=      5-min Rain = 0
KWE2 100535Z 13007KT 15/10 A3022 RMK A01 T01520101  RH  071%=      5-min Rain = 0
KWE2 100536Z 13006KT 15/10 A3022 RMK A01 T01520100  RH  071%=      5-min Rain = 0
KWE2 100537Z 13006KT 15/10 A3022 RMK A01 T01510100  RH  071%=      5-min Rain = 0
KWE2 100538Z 12007KT 15/10 A3022 RMK A01 T01510100  RH  071%=      5-min Rain = 0
KWE2 100539Z 12007KT 15/10 A3022 RMK A01 T01520099  RH  071%=      5-min Rain = 0
KWE2 100540Z 12006KT 15/10 A3022 RMK A01 T01520099  RH  071%=      5-min Rain = 0
KWE2 100541Z 12006KT 15/10 A3022 RMK A01 T01530099  RH  070%=      5-min Rain = 0
KWE2 100542Z 12006KT 15/10 A3022 RMK A01 T01530099  RH  070%=      5-min Rain = 0
KWE2 100543Z 12006KT 15/10 A3022 RMK A01 T01520099  RH  070%=      5-min Rain = 0
KWE2 100544Z 12006KT 15/10 A3022 RMK A01 T01520099  RH  071%=      5-min Rain = 0
KWE2 100545Z 12006KT 15/10 A3022 RMK A01 T01510099  RH  071%=      5-min Rain = 0
KWE2 100546Z 12005KT 15/10 A3022 RMK A01 T01510099  RH  071%=      5-min Rain = 0
KWE2 100547Z 12006KT 15/10 A3022 RMK A01 T01510098  RH  071%=      5-min Rain = 0
KWE2 100548Z 12005KT 15/10 A3022 RMK A01 T01510097  RH  070%=      5-min Rain = 0
KWE2 100549Z 11006KT 15/10 A3022 RMK A01 T01500096  RH  070%=      5-min Rain = 0
KWE2 100550Z 11006KT 15/10 A3022 RMK A01 T01500097  RH  070%=      5-min Rain = 0
KWE2 100551Z 11006KT 15/10 A3022 RMK A01 T01500096  RH  070%=      5-min Rain = 0
KWE2 100552Z 11006KT 15/10 A3022 RMK A01 T01500096  RH  070%=      5-min Rain = 0
KWE2 100553Z 11006KT 15/10 A3022 RMK A01 T01500095  RH  070%=      5-min Rain = 0
KWE2 100554Z 11006KT 15/10 A3022 RMK A01 T01500096  RH  070%=      5-min Rain = 0
KWE2 100555Z 11006KT 15/10 A3022 RMK A01 T01510096  RH  070%=      5-min Rain = 0
KWE2 100556Z 11006KT 15/10 A3022 RMK A01 T01520097  RH  070%=      5-min Rain = 0
KWE2 100557Z 11006KT 15/10 A3022 RMK A01 T01510097  RH  070%=      5-min Rain = 0
KWE2 100558Z 11006KT 15/10 A3022 RMK A01 T01510097  RH  070%=      5-min Rain = 0
KWE2 100559Z 11006KT 15/10 A3022 RMK A01 T01500097  RH  070%=      5-min Rain = 0
KWE2 100600Z 12006KT 15/10 A3022 RMK A01 T01500097  RH  071%=      5-min Rain = 0
KWE2 100601Z 12005KT 15/10 A3022 RMK A01 T01500098  RH  071%=      5-min Rain = 0
KWE2 100602Z 12005KT 15/10 A3022 RMK A01 T01500098  RH  071%=      5-min Rain = 0
KWE2 100603Z 12006KT 15/10 A3022 RMK A01 T01490098  RH  071%=      5-min Rain = 0
KWE2 100604Z 12006KT 15/10 A3022 RMK A01 T01500099  RH  072%=      5-min Rain = 0
KWE2 100605Z 12006KT 15/10 A3022 RMK A01 T01500099  RH  072%=      5-min Rain = 0
KWE2 100606Z 12006KT 15/10 A3022 RMK A01 T01490099  RH  072%=      5-min Rain = 0
KWE2 100607Z 12006KT 15/10 A3022 RMK A01 T01500099  RH  072%=      5-min Rain = 0
KWE2 100608Z 12006KT 15/10 A3022 RMK A01 T01500100  RH  072%=      5-min Rain = 0
KWE2 100609Z 12005KT 15/10 A3022 RMK A01 T01490100  RH  072%=      5-min Rain = 0
KWE2 100610Z 12005KT 15/10 A3022 RMK A01 T01480100  RH  073%=      5-min Rain = 0
KWE2 100611Z 12005KT 15/10 A3022 RMK A01 T01480100  RH  073%=      5-min Rain = 0
KWE2 100612Z 12005KT 15/10 A3022 RMK A01 T01470100  RH  073%=      5-min Rain = 0
KWE2 100613Z 12005KT 15/10 A3022 RMK A01 T01470100  RH  073%=      5-min Rain = 0
KWE2 100614Z 12005KT 15/10 A3022 RMK A01 T01470100  RH  073%=      5-min Rain = 0
KWE2 100615Z 12005KT 15/10 A3022 RMK A01 T01470101  RH  074%=      5-min Rain = 0
KWE2 100616Z 12005KT 15/10 A3022 RMK A01 T01460101  RH  074%=      5-min Rain = 0
KWE2 100617Z 12005KT 15/10 A3022 RMK A01 T01460101  RH  074%=      5-min Rain = 0
KWE2 100618Z 12005KT 15/10 A3022 RMK A01 T01450100  RH  074%=      5-min Rain = 0
KWE2 100619Z 12005KT 15/10 A3022 RMK A01 T01450100  RH  074%=      5-min Rain = 0
KWE2 100620Z 12005KT 15/10 A3022 RMK A01 T01450100  RH  074%=      5-min Rain = 0
KWE2 100621Z 12005KT 15/10 A3022 RMK A01 T01450100  RH  074%=      5-min Rain = 0
KWE2 100622Z 12005KT 15/10 A3022 RMK A01 T01460099  RH  074%=      5-min Rain = 0
KWE2 100623Z 12006KT 15/10 A3022 RMK A01 T01470099  RH  073%=      5-min Rain = 0
KWE2 100624Z 12005KT 15/10 A3022 RMK A01 T01470100  RH  073%=      5-min Rain = 0
KWE2 100625Z 12005KT 15/10 A3022 RMK A01 T01470099  RH  073%=      5-min Rain = 0
KWE2 100626Z 12005KT 15/10 A3022 RMK A01 T01470099  RH  073%=      5-min Rain = 0
KWE2 100627Z 12005KT 15/10 A3022 RMK A01 T01470100  RH  073%=      5-min Rain = 0
KWE2 100628Z 12005KT 15/10 A3022 RMK A01 T01470099  RH  073%=      5-min Rain = 0
KWE2 100629Z 12005KT 15/10 A3022 RMK A01 T01460099  RH  073%=      5-min Rain = 0
KWE2 100630Z 12005KT 15/10 A3022 RMK A01 T01460099  RH  073%=      5-min Rain = 0
KWE2 100631Z 12005KT 15/10 A3022 RMK A01 T01470099  RH  073%=      5-min Rain = 0
KWE2 100632Z 12006KT 15/10 A3022 RMK A01 T01460099  RH  073%=      5-min Rain = 0
KWE2 100633Z 12005KT 15/10 A3022 RMK A01 T01460098  RH  073%=      5-min Rain = 0
KWE2 100634Z 12006KT 15/10 A3022 RMK A01 T01460098  RH  073%=      5-min Rain = 0
KWE2 100635Z 12006KT 15/10 A3022 RMK A01 T01460098  RH  073%=      5-min Rain = 0
KWE2 100636Z 12005KT 15/10 A3022 RMK A01 T01460098  RH  073%=      5-min Rain = 0
KWE2 100637Z 12006KT 15/10 A3022 RMK A01 T01460098  RH  073%=      5-min Rain = 0
KWE2 100638Z 12006KT 15/10 A3022 RMK A01 T01460098  RH  073%=      5-min Rain = 0
KWE2 100639Z 12006KT 15/10 A3022 RMK A01 T01460098  RH  073%=      5-min Rain = 0
KWE2 100640Z 12006KT 15/10 A3022 RMK A01 T01460098  RH  073%=      5-min Rain = 0
KWE2 100641Z 12006KT 15/10 A3022 RMK A01 T01450098  RH  073%=      5-min Rain = 0
KWE2 100642Z 12006KT 15/10 A3022 RMK A01 T01450097  RH  073%=      5-min Rain = 0
KWE2 100643Z 12006KT 15/10 A3022 RMK A01 T01460097  RH  072%=      5-min Rain = 0
KWE2 100644Z 11005KT 15/10 A3022 RMK A01 T01460096  RH  072%=      5-min Rain = 0
KWE2 100645Z 11005KT 15/10 A3022 RMK A01 T01460096  RH  072%=      5-min Rain = 0
KWE2 100646Z 11005KT 15/10 A3022 RMK A01 T01470096  RH  071%=      5-min Rain = 0
KWE2 100647Z 11005KT 15/10 A3022 RMK A01 T01480095  RH  071%=      5-min Rain = 0
KWE2 100648Z 11005KT 15/10 A3022 RMK A01 T01480095  RH  071%=      5-min Rain = 0
KWE2 100649Z 11005KT 15/10 A3022 RMK A01 T01480095  RH  071%=      5-min Rain = 0
KWE2 100650Z 11006KT 15/10 A3022 RMK A01 T01480095  RH  071%=      5-min Rain = 0
KWE2 100651Z 11006KT 15/10 A3022 RMK A01 T01480096  RH  071%=      5-min Rain = 0
KWE2 100652Z 11006KT 15/10 A3022 RMK A01 T01480096  RH  071%=      5-min Rain = 0
KWE2 100653Z 11006KT 15/10 A3022 RMK A01 T01480096  RH  071%=      5-min Rain = 0
KWE2 100654Z 11006KT 15/10 A3022 RMK A01 T01480097  RH  071%=      5-min Rain = 0
KWE2 100655Z 11006KT 15/10 A3022 RMK A01 T01480097  RH  071%=      5-min Rain = 0
KWE2 100656Z 11006KT 15/10 A3022 RMK A01 T01480097  RH  072%=      5-min Rain = 0
KWE2 100657Z 11006KT 15/10 A3022 RMK A01 T01470097  RH  072%=      5-min Rain = 0
KWE2 100658Z 11007KT 15/10 A3022 RMK A01 T01470097  RH  072%=      5-min Rain = 0
KWE2 100659Z 11006KT 15/10 A3022 RMK A01 T01460097  RH  072%=      5-min Rain = 0
KWE2 100700Z 11006KT 15/10 A3022 RMK A01 T01450097  RH  073%=      5-min Rain = 0
KWE2 100701Z 11006KT 14/10 A3022 RMK A01 T01440097  RH  073%=      5-min Rain = 0
KWE2 100702Z 11006KT 14/10 A3022 RMK A01 T01430097  RH  074%=      5-min Rain = 0
KWE2 100703Z 12006KT 14/10 A3022 RMK A01 T01420098  RH  074%=      5-min Rain = 0
KWE2 100704Z 12006KT 14/10 A3022 RMK A01 T01420098  RH  075%=      5-min Rain = 0
KWE2 100705Z 12006KT 14/10 A3022 RMK A01 T01420098  RH  075%=      5-min Rain = 0
KWE2 100706Z 12006KT 14/10 A3022 RMK A01 T01420098  RH  075%=      5-min Rain = 0
KWE2 100707Z 12006KT 14/10 A3022 RMK A01 T01420098  RH  074%=      5-min Rain = 0
KWE2 100708Z 12006KT 14/10 A3022 RMK A01 T01420097  RH  074%=      5-min Rain = 0
KWE2 100709Z 12006KT 14/10 A3022 RMK A01 T01420098  RH  075%=      5-min Rain = 0
KWE2 100710Z 12006KT 14/10 A3022 RMK A01 T01420098  RH  075%=      5-min Rain = 0
KWE2 100711Z 12006KT 14/10 A3022 RMK A01 T01420098  RH  075%=      5-min Rain = 0
KWE2 100712Z 12006KT 14/10 A3022 RMK A01 T01410098  RH  075%=      5-min Rain = 0
KWE2 100713Z 12006KT 14/10 A3022 RMK A01 T01410099  RH  076%=      5-min Rain = 0
KWE2 100714Z 12006KT 14/10 A3022 RMK A01 T01390099  RH  077%=      5-min Rain = 0
KWE2 100715Z 12006KT 14/10 A3022 RMK A01 T01380099  RH  077%=      5-min Rain = 0
KWE2 100716Z 12006KT 14/10 A3022 RMK A01 T01380099  RH  077%=      5-min Rain = 0
KWE2 100717Z 12006KT 14/10 A3022 RMK A01 T01380099  RH  077%=      5-min Rain = 0
KWE2 100718Z 12005KT 14/10 A3022 RMK A01 T01380099  RH  077%=      5-min Rain = 0
KWE2 100719Z 12005KT 14/10 A3022 RMK A01 T01370099  RH  077%=      5-min Rain = 0
KWE2 100720Z 12005KT 14/10 A3022 RMK A01 T01370099  RH  078%=      5-min Rain = 0
KWE2 100721Z 11005KT 14/10 A3022 RMK A01 T01370098  RH  078%=      5-min Rain = 0
KWE2 100722Z 11005KT 14/10 A3022 RMK A01 T01370098  RH  077%=      5-min Rain = 0
KWE2 100723Z 11005KT 14/10 A3022 RMK A01 T01380098  RH  077%=      5-min Rain = 0
KWE2 100724Z 11005KT 14/10 A3022 RMK A01 T01380098  RH  077%=      5-min Rain = 0
KWE2 100725Z 11005KT 14/10 A3022 RMK A01 T01380098  RH  077%=      5-min Rain = 0
KWE2 100726Z 11005KT 14/10 A3022 RMK A01 T01380098  RH  077%=      5-min Rain = 0
KWE2 100727Z 11005KT 14/10 A3022 RMK A01 T01380098  RH  077%=      5-min Rain = 0
KWE2 100728Z 11005KT 14/10 A3022 RMK A01 T01380097  RH  076%=      5-min Rain = 0
KWE2 100729Z 11005KT 14/10 A3022 RMK A01 T01390096  RH  076%=      5-min Rain = 0
KWE2 100730Z 11005KT 14/10 A3022 RMK A01 T01390096  RH  076%=      5-min Rain = 0
KWE2 100731Z 11005KT 14/10 A3022 RMK A01 T01380096  RH  076%=      5-min Rain = 0
KWE2 100732Z 11005KT 14/10 A3022 RMK A01 T01380097  RH  076%=      5-min Rain = 0
KWE2 100733Z 11005KT 14/10 A3022 RMK A01 T01380097  RH  076%=      5-min Rain = 0
KWE2 100734Z 10005KT 14/10 A3022 RMK A01 T01380097  RH  076%=      5-min Rain = 0
KWE2 100735Z 10005KT 14/10 A3022 RMK A01 T01380096  RH  076%=      5-min Rain = 0
KWE2 100736Z 10005KT 14/10 A3023 RMK A01 T01360096  RH  076%=      5-min Rain = 0
KWE2 100737Z 10005KT 14/10 A3023 RMK A01 T01360096  RH  077%=      5-min Rain = 0
KWE2 100738Z 10005KT 14/10 A3023 RMK A01 T01350096  RH  077%=      5-min Rain = 0
KWE2 100739Z 10006KT 14/10 A3023 RMK A01 T01350096  RH  077%=      5-min Rain = 0
KWE2 100740Z 10005KT 14/10 A3023 RMK A01 T01350095  RH  077%=      5-min Rain = 0
KWE2 100741Z 10005KT 14/10 A3023 RMK A01 T01350095  RH  077%=      5-min Rain = 0
KWE2 100742Z 11006KT 14/10 A3023 RMK A01 T01350095  RH  077%=      5-min Rain = 0
KWE2 100743Z 11006KT 14/10 A3023 RMK A01 T01350095  RH  077%=      5-min Rain = 0
KWE2 100744Z 11006KT 14/10 A3023 RMK A01 T01350095  RH  077%=      5-min Rain = 0
KWE2 100745Z 11005KT 14/10 A3023 RMK A01 T01350095  RH  077%=      5-min Rain = 0
KWE2 100746Z 11005KT 13/10 A3023 RMK A01 T01340095  RH  077%=      5-min Rain = 0
KWE2 100747Z 11005KT 13/09 A3023 RMK A01 T01340094  RH  077%=      5-min Rain = 0
KWE2 100748Z 11005KT 13/09 A3023 RMK A01 T01330094  RH  077%=      5-min Rain = 0
KWE2 100749Z 10005KT 13/09 A3023 RMK A01 T01330094  RH  077%=      5-min Rain = 0
KWE2 100750Z 10005KT 13/09 A3023 RMK A01 T01330094  RH  077%=      5-min Rain = 0
KWE2 100751Z 10005KT 13/09 A3023 RMK A01 T01340094  RH  077%=      5-min Rain = 0
KWE2 100752Z 10005KT 13/09 A3023 RMK A01 T01340094  RH  077%=      5-min Rain = 0
KWE2 100753Z 10005KT 13/09 A3023 RMK A01 T01330094  RH  077%=      5-min Rain = 0
KWE2 100754Z 10005KT 14/09 A3023 RMK A01 T01350094  RH  076%=      5-min Rain = 0
KWE2 100755Z 10005KT 14/09 A3023 RMK A01 T01360094  RH  076%=      5-min Rain = 0
KWE2 100756Z 11005KT 14/09 A3023 RMK A01 T01370094  RH  075%=      5-min Rain = 0
KWE2 100757Z 11006KT 14/09 A3023 RMK A01 T01370094  RH  075%=      5-min Rain = 0
KWE2 100758Z 11005KT 14/09 A3023 RMK A01 T01370094  RH  076%=      5-min Rain = 0
KWE2 100759Z 11006KT 14/10 A3023 RMK A01 T01370095  RH  076%=      5-min Rain = 0
KWE2 100800Z 10005KT 14/10 A3023 RMK A01 T01370095  RH  076%=      5-min Rain = 0
KWE2 100801Z 10005KT 14/10 A3023 RMK A01 T01360095  RH  076%=      5-min Rain = 0
KWE2 100802Z 10005KT 14/09 A3023 RMK A01 T01360094  RH  076%=      5-min Rain = 0
KWE2 100803Z 10005KT 14/10 A3023 RMK A01 T01360095  RH  076%=      5-min Rain = 0
KWE2 100804Z 10005KT 14/09 A3023 RMK A01 T01360094  RH  076%=      5-min Rain = 0
KWE2 100805Z 10005KT 14/09 A3023 RMK A01 T01370094  RH  075%=      5-min Rain = 0
KWE2 100806Z 10005KT 14/09 A3023 RMK A01 T01380094  RH  075%=      5-min Rain = 0
KWE2 100807Z 10005KT 14/09 A3023 RMK A01 T01380094  RH  075%=      5-min Rain = 0
KWE2 100808Z 10005KT 14/09 A3023 RMK A01 T01380094  RH  074%=      5-min Rain = 0
KWE2 100809Z 10005KT 14/09 A3023 RMK A01 T01390094  RH  074%=      5-min Rain = 0
KWE2 100810Z 10005KT 14/09 A3023 RMK A01 T01370093  RH  075%=      5-min Rain = 0
KWE2 100811Z 10005KT 14/09 A3023 RMK A01 T01370094  RH  075%=      5-min Rain = 0
KWE2 100812Z 10005KT 14/09 A3023 RMK A01 T01370094  RH  075%=      5-min Rain = 0
KWE2 100813Z 10005KT 14/09 A3023 RMK A01 T01370094  RH  075%=      5-min Rain = 0
KWE2 100814Z 10006KT 14/09 A3023 RMK A01 T01360094  RH  075%=      5-min Rain = 0
KWE2 100815Z 10005KT 14/09 A3023 RMK A01 T01360094  RH  075%=      5-min Rain = 0
KWE2 100816Z 10006KT 14/09 A3023 RMK A01 T01360094  RH  076%=      5-min Rain = 0
KWE2 100817Z 10006KT 14/10 A3023 RMK A01 T01360095  RH  076%=      5-min Rain = 0
KWE2 100818Z 11006KT 14/10 A3023 RMK A01 T01360095  RH  076%=      5-min Rain = 0
KWE2 100819Z 11006KT 14/10 A3023 RMK A01 T01350095  RH  077%=      5-min Rain = 0
KWE2 100820Z 11006KT 13/09 A3023 RMK A01 T01330094  RH  077%=      5-min Rain = 0
KWE2 100821Z 11006KT 13/09 A3023 RMK A01 T01320094  RH  078%=      5-min Rain = 0
KWE2 100822Z 11006KT 13/09 A3023 RMK A01 T01320094  RH  078%=      5-min Rain = 0
KWE2 100823Z 11006KT 13/09 A3023 RMK A01 T01310094  RH  078%=      5-min Rain = 0
KWE2 100824Z 11006KT 13/09 A3023 RMK A01 T01300094  RH  078%=      5-min Rain = 0
KWE2 100825Z 10006KT 13/09 A3023 RMK A01 T01300094  RH  078%=      5-min Rain = 0
KWE2 100826Z 10006KT 13/09 A3023 RMK A01 T01300093  RH  078%=      5-min Rain = 0
KWE2 100827Z 10006KT 13/09 A3023 RMK A01 T01300093  RH  078%=      5-min Rain = 0
KWE2 100828Z 10006KT 13/09 A3023 RMK A01 T01300092  RH  078%=      5-min Rain = 0
KWE2 100829Z 10005KT 13/09 A3023 RMK A01 T01310093  RH  077%=      5-min Rain = 0
KWE2 100830Z 10005KT 13/09 A3023 RMK A01 T01320092  RH  077%=      5-min Rain = 0
KWE2 100831Z 10005KT 13/09 A3023 RMK A01 T01320092  RH  077%=      5-min Rain = 0
KWE2 100832Z 10006KT 13/09 A3023 RMK A01 T01330093  RH  076%=      5-min Rain = 0
KWE2 100833Z 10006KT 13/09 A3023 RMK A01 T01330092  RH  076%=      5-min Rain = 0
KWE2 100834Z 10006KT 14/09 A3023 RMK A01 T01350093  RH  076%=      5-min Rain = 0
KWE2 100835Z 10006KT 14/09 A3023 RMK A01 T01360093  RH  076%=      5-min Rain = 0
KWE2 100836Z 11006KT 14/09 A3023 RMK A01 T01360093  RH  075%=      5-min Rain = 0
KWE2 100837Z 11007KT 14/09 A3023 RMK A01 T01360094  RH  075%=      5-min Rain = 0
KWE2 100838Z 11007KT 14/09 A3023 RMK A01 T01370094  RH  075%=      5-min Rain = 0
KWE2 100839Z 11008KT 14/10 A3023 RMK A01 T01370095  RH  075%=      5-min Rain = 0
KWE2 100840Z 11008KT 14/10 A3023 RMK A01 T01360095  RH  076%=      5-min Rain = 0
KWE2 100841Z 11008KT 14/10 A3023 RMK A01 T01350095  RH  076%=      5-min Rain = 0
KWE2 100842Z 12008KT 14/10 A3023 RMK A01 T01350095  RH  077%=      5-min Rain = 0
KWE2 100843Z 12007KT 13/10 A3023 RMK A01 T01340096  RH  077%=      5-min Rain = 0
KWE2 100844Z 11007KT 14/10 A3023 RMK A01 T01350096  RH  078%=      5-min Rain = 0
KWE2 100845Z 11007KT 13/10 A3023 RMK A01 T01340096  RH  078%=      5-min Rain = 0
KWE2 100846Z 11006KT 13/10 A3023 RMK A01 T01340096  RH  078%=      5-min Rain = 0
KWE2 100847Z 11007KT 13/10 A3023 RMK A01 T01330096  RH  078%=      5-min Rain = 0
KWE2 100848Z 11007KT 13/10 A3023 RMK A01 T01330096  RH  078%=      5-min Rain = 0
KWE2 100849Z 11007KT 13/10 A3023 RMK A01 T01330096  RH  078%=      5-min Rain = 0
KWE2 100850Z 11007KT 13/10 A3023 RMK A01 T01330096  RH  078%=      5-min Rain = 0
KWE2 100851Z 10006KT 13/10 A3023 RMK A01 T01330096  RH  078%=      5-min Rain = 0
KWE2 100852Z 11006KT 13/10 A3023 RMK A01 T01330096  RH  078%=      5-min Rain = 0
KWE2 100853Z 11007KT 13/10 A3023 RMK A01 T01320096  RH  079%=      5-min Rain = 0
KWE2 100854Z 11007KT 13/10 A3023 RMK A01 T01320096  RH  079%=      5-min Rain = 0
KWE2 100855Z 11007KT 13/10 A3023 RMK A01 T01320095  RH  079%=      5-min Rain = 0
KWE2 100856Z 11007KT 13/10 A3023 RMK A01 T01320095  RH  079%=      5-min Rain = 0
KWE2 100857Z 11007KT 13/10 A3023 RMK A01 T01320096  RH  078%=      5-min Rain = 0
KWE2 100858Z 11007KT 13/10 A3023 RMK A01 T01320096  RH  078%=      5-min Rain = 0
KWE2 100859Z 11007KT 13/10 A3023 RMK A01 T01320095  RH  078%=      5-min Rain = 0
KWE2 100900Z 11007KT 13/10 A3023 RMK A01 T01320096  RH  079%=      5-min Rain = 0
KWE2 100901Z 11007KT 13/10 A3023 RMK A01 T01320096  RH  079%=      5-min Rain = 0
KWE2 100902Z 11007KT 13/10 A3023 RMK A01 T01310096  RH  079%=      5-min Rain = 0
KWE2 100903Z 11007KT 13/10 A3023 RMK A01 T01310097  RH  080%=      5-min Rain = 0
KWE2 100904Z 12007KT 13/10 A3023 RMK A01 T01310098  RH  080%=      5-min Rain = 0
KWE2 100905Z 12007KT 13/10 A3023 RMK A01 T01310097  RH  080%=      5-min Rain = 0
KWE2 100906Z 12007KT 13/10 A3023 RMK A01 T01310097  RH  080%=      5-min Rain = 0
KWE2 100907Z 12007KT 13/10 A3023 RMK A01 T01310097  RH  080%=      5-min Rain = 0
KWE2 100908Z 12007KT 13/10 A3023 RMK A01 T01310097  RH  080%=      5-min Rain = 0
KWE2 100909Z 12007KT 13/10 A3023 RMK A01 T01310097  RH  080%=      5-min Rain = 0
KWE2 100910Z 12007KT 13/10 A3023 RMK A01 T01310098  RH  080%=      5-min Rain = 0
KWE2 100911Z 12007KT 13/10 A3023 RMK A01 T01310098  RH  080%=      5-min Rain = 0
KWE2 100912Z 12007KT 13/10 A3023 RMK A01 T01310098  RH  080%=      5-min Rain = 0
KWE2 100913Z 12007KT 13/10 A3023 RMK A01 T01310098  RH  080%=      5-min Rain = 0
KWE2 100914Z 12007KT 13/10 A3023 RMK A01 T01310098  RH  080%=      5-min Rain = 0
KWE2 100915Z 12006KT 13/10 A3022 RMK A01 T01310098  RH  080%=      5-min Rain = 0
KWE2 100916Z 12006KT 13/10 A3023 RMK A01 T01310098  RH  080%=      5-min Rain = 0
KWE2 100917Z 12006KT 13/10 A3023 RMK A01 T01310097  RH  080%=      5-min Rain = 0
KWE2 100918Z 12006KT 13/10 A3023 RMK A01 T01310097  RH  080%=      5-min Rain = 0
KWE2 100919Z 12006KT 13/10 A3023 RMK A01 T01310097  RH  080%=      5-min Rain = 0
KWE2 100920Z 11006KT 13/10 A3023 RMK A01 T01310097  RH  080%=      5-min Rain = 0
KWE2 100921Z 11006KT 13/10 A3023 RMK A01 T01310097  RH  080%=      5-min Rain = 0
KWE2 100922Z 11005KT 13/10 A3023 RMK A01 T01310097  RH  080%=      5-min Rain = 0
KWE2 100923Z 11006KT 13/10 A3023 RMK A01 T01300097  RH  080%=      5-min Rain = 0
KWE2 100924Z 11006KT 13/10 A3023 RMK A01 T01310098  RH  081%=      5-min Rain = 0
KWE2 100925Z 11006KT 13/10 A3023 RMK A01 T01310098  RH  081%=      5-min Rain = 0
KWE2 100926Z 10006KT 13/10 A3023 RMK A01 T01310098  RH  080%=      5-min Rain = 0
KWE2 100927Z 10006KT 13/10 A3023 RMK A01 T01320099  RH  080%=      5-min Rain = 0
KWE2 100928Z 10005KT 13/10 A3023 RMK A01 T01340099  RH  079%=      5-min Rain = 0
KWE2 100929Z 10006KT 14/10 A3023 RMK A01 T01350099  RH  079%=      5-min Rain = 0
KWE2 100930Z 10005KT 14/10 A3023 RMK A01 T01360099  RH  078%=      5-min Rain = 0
KWE2 100931Z 10005KT 14/10 A3023 RMK A01 T01370099  RH  078%=      5-min Rain = 0
KWE2 100932Z 10005KT 14/10 A3023 RMK A01 T01380098  RH  077%=      5-min Rain = 0
KWE2 100933Z 10005KT 14/10 A3023 RMK A01 T01370098  RH  077%=      5-min Rain = 0
KWE2 100934Z 10005KT 14/10 A3023 RMK A01 T01370098  RH  077%=      5-min Rain = 0
KWE2 100935Z 10005KT 14/10 A3023 RMK A01 T01370098  RH  077%=      5-min Rain = 0
KWE2 100936Z 11005KT 14/10 A3023 RMK A01 T01360098  RH  077%=      5-min Rain = 0
KWE2 100937Z 10005KT 14/10 A3023 RMK A01 T01360098  RH  078%=      5-min Rain = 0
KWE2 100938Z 10005KT 14/10 A3023 RMK A01 T01350098  RH  078%=      5-min Rain = 0
KWE2 100939Z 10005KT 13/10 A3023 RMK A01 T01340098  RH  078%=      5-min Rain = 0
KWE2 100940Z 10005KT 13/10 A3023 RMK A01 T01340098  RH  079%=      5-min Rain = 0
KWE2 100941Z 10006KT 13/10 A3023 RMK A01 T01330097  RH  079%=      5-min Rain = 0
KWE2 100942Z 10006KT 13/10 A3023 RMK A01 T01340097  RH  078%=      5-min Rain = 0
KWE2 100943Z 10006KT 13/10 A3023 RMK A01 T01330097  RH  078%=      5-min Rain = 0
KWE2 100944Z 10006KT 13/10 A3023 RMK A01 T01340097  RH  078%=      5-min Rain = 0
KWE2 100945Z 10006KT 13/10 A3023 RMK A01 T01330097  RH  078%=      5-min Rain = 0
KWE2 100946Z 10006KT 13/10 A3023 RMK A01 T01330097  RH  078%=      5-min Rain = 0
KWE2 100947Z 10005KT 13/10 A3023 RMK A01 T01330097  RH  078%=      5-min Rain = 0
KWE2 100948Z 10006KT 13/10 A3023 RMK A01 T01340097  RH  078%=      5-min Rain = 0
KWE2 100949Z 10006KT 13/10 A3023 RMK A01 T01340097  RH  078%=      5-min Rain = 0
KWE2 100950Z 11006KT 13/10 A3023 RMK A01 T01340097  RH  078%=      5-min Rain = 0
KWE2 100951Z 10006KT 13/10 A3023 RMK A01 T01330097  RH  078%=      5-min Rain = 0
KWE2 100952Z 10005KT 13/10 A3023 RMK A01 T01340097  RH  078%=      5-min Rain = 0
KWE2 100953Z 10005KT 13/10 A3023 RMK A01 T01340097  RH  078%=      5-min Rain = 0
KWE2 100954Z 10005KT 13/10 A3023 RMK A01 T01340097  RH  078%=      5-min Rain = 0
KWE2 100955Z 10005KT 13/10 A3023 RMK A01 T01330096  RH  078%=      5-min Rain = 0
KWE2 100956Z 10004KT 13/10 A3023 RMK A01 T01330097  RH  079%=      5-min Rain = 0
KWE2 100957Z 11005KT 13/10 A3023 RMK A01 T01320097  RH  079%=      5-min Rain = 0
KWE2 100958Z 11005KT 13/10 A3023 RMK A01 T01320097  RH  079%=      5-min Rain = 0
KWE2 100959Z 10005KT 13/10 A3023 RMK A01 T01330096  RH  079%=      5-min Rain = 0
KWE2 101000Z 10005KT 13/10 A3023 RMK A01 T01330097  RH  079%=      5-min Rain = 0
KWE2 101001Z 10005KT 13/10 A3023 RMK A01 T01320097  RH  079%=      5-min Rain = 0
KWE2 101002Z 10005KT 13/10 A3023 RMK A01 T01320097  RH  079%=      5-min Rain = 0
KWE2 101003Z 10005KT 13/10 A3023 RMK A01 T01320096  RH  079%=      5-min Rain = 0
KWE2 101004Z 10005KT 13/10 A3023 RMK A01 T01320096  RH  079%=      5-min Rain = 0
KWE2 101005Z 10005KT 13/10 A3023 RMK A01 T01320096  RH  079%=      5-min Rain = 0
KWE2 101006Z 10005KT 13/10 A3023 RMK A01 T01320095  RH  078%=      5-min Rain = 0
KWE2 101007Z 10005KT 13/10 A3023 RMK A01 T01320095  RH  078%=      5-min Rain = 0
KWE2 101008Z 10005KT 13/10 A3023 RMK A01 T01320095  RH  078%=      5-min Rain = 0
KWE2 101009Z 09005KT 13/10 A3023 RMK A01 T01320095  RH  078%=      5-min Rain = 0
KWE2 101010Z 10005KT 13/10 A3024 RMK A01 T01330095  RH  078%=      5-min Rain = 0
KWE2 101011Z 09005KT 13/10 A3024 RMK A01 T01330095  RH  078%=      5-min Rain = 0
KWE2 101012Z 09005KT 13/10 A3024 RMK A01 T01340095  RH  077%=      5-min Rain = 0
KWE2 101013Z 09005KT 13/10 A3024 RMK A01 T01340095  RH  077%=      5-min Rain = 0
KWE2 101014Z 09004KT 14/10 A3024 RMK A01 T01350095  RH  077%=      5-min Rain = 0
KWE2 101015Z 09004KT 14/10 A3024 RMK A01 T01350095  RH  077%=      5-min Rain = 0
KWE2 101016Z 09005KT 14/10 A3024 RMK A01 T01360095  RH  077%=      5-min Rain = 0
KWE2 101017Z 09004KT 14/10 A3024 RMK A01 T01370095  RH  076%=      5-min Rain = 0
KWE2 101018Z 09004KT 14/10 A3024 RMK A01 T01370096  RH  076%=      5-min Rain = 0
KWE2 101019Z 09004KT 14/10 A3024 RMK A01 T01380096  RH  076%=      5-min Rain = 0
KWE2 101020Z 09004KT 14/10 A3024 RMK A01 T01390096  RH  075%=      5-min Rain = 0
KWE2 101021Z 10004KT 14/10 A3024 RMK A01 T01390095  RH  075%=      5-min Rain = 0
KWE2 101022Z 10004KT 14/10 A3024 RMK A01 T01380095  RH  075%=      5-min Rain = 0
KWE2 101023Z 10004KT 14/10 A3024 RMK A01 T01380095  RH  075%=      5-min Rain = 0
KWE2 101024Z 10004KT 14/10 A3024 RMK A01 T01390096  RH  075%=      5-min Rain = 0
KWE2 101025Z 10005KT 14/10 A3024 RMK A01 T01390095  RH  075%=      5-min Rain = 0
KWE2 101026Z 10005KT 14/10 A3024 RMK A01 T01390096  RH  075%=      5-min Rain = 0
KWE2 101027Z 10005KT 14/10 A3024 RMK A01 T01380096  RH  076%=      5-min Rain = 0
KWE2 101028Z 10005KT 14/10 A3024 RMK A01 T01370096  RH  076%=      5-min Rain = 0
KWE2 101029Z 10004KT 14/10 A3024 RMK A01 T01360096  RH  076%=      5-min Rain = 0
KWE2 101030Z 10004KT 14/10 A3024 RMK A01 T01360096  RH  077%=      5-min Rain = 0
KWE2 101031Z 11005KT 14/10 A3024 RMK A01 T01360096  RH  077%=      5-min Rain = 0
KWE2 101032Z 11005KT 14/10 A3024 RMK A01 T01350096  RH  077%=      5-min Rain = 0
KWE2 101033Z 11005KT 13/10 A3024 RMK A01 T01340096  RH  078%=      5-min Rain = 0
KWE2 101034Z 11005KT 13/10 A3024 RMK A01 T01340096  RH  078%=      5-min Rain = 0
KWE2 101035Z 11005KT 13/10 A3024 RMK A01 T01330096  RH  078%=      5-min Rain = 0
KWE2 101036Z 11005KT 13/10 A3024 RMK A01 T01330096  RH  078%=      5-min Rain = 0
KWE2 101037Z 10005KT 13/10 A3024 RMK A01 T01320096  RH  078%=      5-min Rain = 0
KWE2 101038Z 10005KT 13/10 A3024 RMK A01 T01320095  RH  078%=      5-min Rain = 0
KWE2 101039Z 10005KT 13/10 A3024 RMK A01 T01320095  RH  078%=      5-min Rain = 0
KWE2 101040Z 10005KT 13/10 A3024 RMK A01 T01340096  RH  078%=      5-min Rain = 0
KWE2 101041Z 10005KT 14/10 A3024 RMK A01 T01350096  RH  077%=      5-min Rain = 0
KWE2 101042Z 10006KT 14/10 A3024 RMK A01 T01360096  RH  077%=      5-min Rain = 0
KWE2 101043Z 10005KT 14/10 A3024 RMK A01 T01370097  RH  076%=      5-min Rain = 0
KWE2 101044Z 10005KT 14/10 A3024 RMK A01 T01370096  RH  076%=      5-min Rain = 0
KWE2 101045Z 10005KT 14/10 A3024 RMK A01 T01380096  RH  076%=      5-min Rain = 0
KWE2 101046Z 10005KT 14/10 A3024 RMK A01 T01380096  RH  076%=      5-min Rain = 0
KWE2 101047Z 10005KT 14/10 A3024 RMK A01 T01380096  RH  076%=      5-min Rain = 0
KWE2 101048Z 10005KT 14/10 A3024 RMK A01 T01370096  RH  076%=      5-min Rain = 0
KWE2 101049Z 10005KT 14/10 A3024 RMK A01 T01380096  RH  076%=      5-min Rain = 0
KWE2 101050Z 10005KT 14/10 A3024 RMK A01 T01380096  RH  076%=      5-min Rain = 0
KWE2 101051Z 09005KT 14/10 A3024 RMK A01 T01380097  RH  076%=      5-min Rain = 0
KWE2 101052Z 09005KT 14/10 A3024 RMK A01 T01380096  RH  076%=      5-min Rain = 0
KWE2 101053Z 09005KT 14/10 A3024 RMK A01 T01390097  RH  076%=      5-min Rain = 0
KWE2 101054Z 09005KT 14/10 A3024 RMK A01 T01390097  RH  075%=      5-min Rain = 0
KWE2 101055Z 09005KT 14/10 A3024 RMK A01 T01400097  RH  075%=      5-min Rain = 0
KWE2 101056Z 09004KT 14/10 A3024 RMK A01 T01400097  RH  075%=      5-min Rain = 0
KWE2 101057Z 10005KT 14/10 A3024 RMK A01 T01420098  RH  075%=      5-min Rain = 0
KWE2 101058Z 09005KT 14/10 A3024 RMK A01 T01440098  RH  074%=      5-min Rain = 0
KWE2 101059Z 09004KT 15/10 A3024 RMK A01 T01450098  RH  073%=      5-min Rain = 0
KWE2 101100Z 09004KT 15/10 A3024 RMK A01 T01460098  RH  073%=      5-min Rain = 0
KWE2 101101Z 09004KT 15/10 A3024 RMK A01 T01460097  RH  073%=      5-min Rain = 0
KWE2 101102Z 09005KT 15/10 A3024 RMK A01 T01460097  RH  073%=      5-min Rain = 0
KWE2 101103Z 09004KT 15/10 A3024 RMK A01 T01450097  RH  073%=      5-min Rain = 0
KWE2 101104Z 09004KT 14/10 A3024 RMK A01 T01440097  RH  073%=      5-min Rain = 0
KWE2 101105Z 10004KT 14/10 A3024 RMK A01 T01440097  RH  073%=      5-min Rain = 0
KWE2 101106Z 09004KT 14/10 A3024 RMK A01 T01440097  RH  073%=      5-min Rain = 0
KWE2 101107Z 10004KT 14/10 A3024 RMK A01 T01430097  RH  074%=      5-min Rain = 0
KWE2 101108Z 10005KT 14/10 A3024 RMK A01 T01430097  RH  074%=      5-min Rain = 0
KWE2 101109Z 09005KT 14/10 A3024 RMK A01 T01430097  RH  074%=      5-min Rain = 0
KWE2 101110Z 10005KT 14/10 A3024 RMK A01 T01430097  RH  074%=      5-min Rain = 0
KWE2 101111Z 09004KT 14/10 A3024 RMK A01 T01430097  RH  074%=      5-min Rain = 0
KWE2 101112Z 09005KT 14/10 A3024 RMK A01 T01420097  RH  074%=      5-min Rain = 0
KWE2 101113Z 10005KT 14/10 A3024 RMK A01 T01410097  RH  075%=      5-min Rain = 0
KWE2 101114Z 10006KT 14/10 A3024 RMK A01 T01410098  RH  075%=      5-min Rain = 0
KWE2 101115Z 10005KT 14/10 A3024 RMK A01 T01410098  RH  075%=      5-min Rain = 0
KWE2 101116Z 10006KT 14/10 A3024 RMK A01 T01410098  RH  075%=      5-min Rain = 0
KWE2 101117Z 10006KT 14/10 A3024 RMK A01 T01420098  RH  075%=      5-min Rain = 0
KWE2 101118Z 09006KT 14/10 A3024 RMK A01 T01420098  RH  075%=      5-min Rain = 0
KWE2 101119Z 09006KT 14/10 A3024 RMK A01 T01420098  RH  075%=      5-min Rain = 0
KWE2 101120Z 09006KT 14/10 A3024 RMK A01 T01420098  RH  075%=      5-min Rain = 0
KWE2 101121Z 09005KT 14/10 A3024 RMK A01 T01420098  RH  075%=      5-min Rain = 0
KWE2 101122Z 10006KT 14/10 A3024 RMK A01 T01420098  RH  075%=      5-min Rain = 0
KWE2 101123Z 10006KT 14/10 A3024 RMK A01 T01420098  RH  075%=      5-min Rain = 0
KWE2 101124Z 09006KT 14/10 A3024 RMK A01 T01420098  RH  075%=      5-min Rain = 0
KWE2 101125Z 10006KT 14/10 A3024 RMK A01 T01420098  RH  075%=      5-min Rain = 0
KWE2 101126Z 10005KT 14/10 A3024 RMK A01 T01420098  RH  075%=      5-min Rain = 0
KWE2 101127Z 10006KT 14/10 A3024 RMK A01 T01420098  RH  075%=      5-min Rain = 0
KWE2 101128Z 10005KT 14/10 A3024 RMK A01 T01420098  RH  075%=      5-min Rain = 0
KWE2 101129Z 10005KT 14/10 A3024 RMK A01 T01420098  RH  075%=      5-min Rain = 0
KWE2 101130Z 10005KT 14/10 A3024 RMK A01 T01410098  RH  075%=      5-min Rain = 0
KWE2 101131Z 10006KT 14/10 A3024 RMK A01 T01410098  RH  075%=      5-min Rain = 0
KWE2 101132Z 10005KT 14/10 A3024 RMK A01 T01410098  RH  075%=      5-min Rain = 0
KWE2 101133Z 10005KT 14/10 A3024 RMK A01 T01410098  RH  075%=      5-min Rain = 0
KWE2 101134Z 10006KT 14/10 A3024 RMK A01 T01410098  RH  075%=      5-min Rain = 0
KWE2 101135Z 10005KT 14/10 A3024 RMK A01 T01400098  RH  075%=      5-min Rain = 0
KWE2 101136Z 10005KT 14/10 A3024 RMK A01 T01400098  RH  076%=      5-min Rain = 0
KWE2 101137Z 10005KT 14/10 A3024 RMK A01 T01390098  RH  076%=      5-min Rain = 0
KWE2 101138Z 10005KT 14/10 A3024 RMK A01 T01390098  RH  077%=      5-min Rain = 0
KWE2 101139Z 10005KT 14/10 A3024 RMK A01 T01380098  RH  077%=      5-min Rain = 0
KWE2 101140Z 10006KT 14/10 A3025 RMK A01 T01380098  RH  077%=      5-min Rain = 0
KWE2 101141Z 10006KT 14/10 A3025 RMK A01 T01370098  RH  077%=      5-min Rain = 0
KWE2 101142Z 09006KT 14/10 A3025 RMK A01 T01370098  RH  077%=      5-min Rain = 0
KWE2 101143Z 09006KT 14/10 A3025 RMK A01 T01370098  RH  077%=      5-min Rain = 0
KWE2 101144Z 09005KT 14/10 A3025 RMK A01 T01380098  RH  077%=      5-min Rain = 0
KWE2 101145Z 10005KT 14/10 A3025 RMK A01 T01390099  RH  077%=      5-min Rain = 0
KWE2 101146Z 10006KT 14/10 A3025 RMK A01 T01390099  RH  076%=      5-min Rain = 0
KWE2 101147Z 10006KT 14/10 A3025 RMK A01 T01400098  RH  076%=      5-min Rain = 0
KWE2 101148Z 10006KT 14/10 A3025 RMK A01 T01400098  RH  076%=      5-min Rain = 0
KWE2 101149Z 10006KT 14/10 A3025 RMK A01 T01400099  RH  076%=      5-min Rain = 0
KWE2 101150Z 10006KT 14/10 A3025 RMK A01 T01400098  RH  076%=      5-min Rain = 0
KWE2 101151Z 10006KT 14/10 A3025 RMK A01 T01410099  RH  076%=      5-min Rain = 0
KWE2 101152Z 10006KT 14/10 A3025 RMK A01 T01410099  RH  076%=      5-min Rain = 0
KWE2 101153Z 10006KT 14/10 A3025 RMK A01 T01410099  RH  076%=      5-min Rain = 0
KWE2 101154Z 10006KT 14/10 A3025 RMK A01 T01410099  RH  076%=      5-min Rain = 0
KWE2 101155Z 10006KT 14/10 A3025 RMK A01 T01400099  RH  076%=      5-min Rain = 0
KWE2 101156Z 10006KT 14/10 A3025 RMK A01 T01400099  RH  076%=      5-min Rain = 0
KWE2 101157Z 10006KT 14/10 A3025 RMK A01 T01400099  RH  076%=      5-min Rain = 0
KWE2 101158Z 10006KT 14/10 A3025 RMK A01 T01400099  RH  076%=      5-min Rain = 0
KWE2 101159Z 10006KT 14/10 A3025 RMK A01 T01400099  RH  076%=      5-min Rain = 0
KWE2 101200Z 10006KT 14/10 A3025 RMK A01 T01400099  RH  076%=      5-min Rain = 0
KWE2 101201Z 10006KT 14/10 A3025 RMK A01 T01400099  RH  076%=      5-min Rain = 0
KWE2 101202Z 10005KT 14/10 A3025 RMK A01 T01390099  RH  077%=      5-min Rain = 0
KWE2 101203Z 10005KT 14/10 A3025 RMK A01 T01390099  RH  077%=      5-min Rain = 0
KWE2 101204Z 10005KT 14/10 A3025 RMK A01 T01380099  RH  077%=      5-min Rain = 0
KWE2 101205Z 10005KT 14/10 A3025 RMK A01 T01360098  RH  078%=      5-min Rain = 0
KWE2 101206Z 10005KT 14/10 A3025 RMK A01 T01350098  RH  078%=      5-min Rain = 0
KWE2 101207Z 10005KT 13/10 A3025 RMK A01 T01330098  RH  079%=      5-min Rain = 0
KWE2 101208Z 10005KT 13/10 A3025 RMK A01 T01310098  RH  080%=      5-min Rain = 0
KWE2 101209Z 10005KT 13/10 A3025 RMK A01 T01300097  RH  081%=      5-min Rain = 0
KWE2 101210Z 10005KT 13/10 A3025 RMK A01 T01280097  RH  081%=      5-min Rain = 0
KWE2 101211Z 10005KT 13/10 A3025 RMK A01 T01280097  RH  082%=      5-min Rain = 0
KWE2 101212Z 10005KT 13/10 A3025 RMK A01 T01260097  RH  082%=      5-min Rain = 0
KWE2 101213Z 10005KT 13/10 A3025 RMK A01 T01260097  RH  082%=      5-min Rain = 0
KWE2 101214Z 10005KT 13/10 A3025 RMK A01 T01260097  RH  083%=      5-min Rain = 0
KWE2 101215Z 10005KT 13/10 A3025 RMK A01 T01260097  RH  083%=      5-min Rain = 0
KWE2 101216Z 10004KT 13/10 A3025 RMK A01 T01250096  RH  083%=      5-min Rain = 0
KWE2 101217Z 10005KT 13/10 A3025 RMK A01 T01250096  RH  082%=      5-min Rain = 0
KWE2 101218Z 10005KT 13/10 A3025 RMK A01 T01250096  RH  083%=      5-min Rain = 0
KWE2 101219Z 10005KT 12/10 A3025 RMK A01 T01240096  RH  083%=      5-min Rain = 0
KWE2 101220Z 10005KT 12/10 A3025 RMK A01 T01240096  RH  083%=      5-min Rain = 0
KWE2 101221Z 10004KT 12/10 A3025 RMK A01 T01230096  RH  083%=      5-min Rain = 0
KWE2 101222Z 10005KT 12/10 A3026 RMK A01 T01240096  RH  083%=      5-min Rain = 0
KWE2 101223Z 10005KT 12/10 A3026 RMK A01 T01230095  RH  083%=      5-min Rain = 0
KWE2 101224Z 10005KT 12/10 A3026 RMK A01 T01230095  RH  083%=      5-min Rain = 0
KWE2 101225Z 10005KT 12/10 A3026 RMK A01 T01230096  RH  083%=      5-min Rain = 0
KWE2 101226Z 11005KT 12/10 A3026 RMK A01 T01230096  RH  083%=      5-min Rain = 0
KWE2 101227Z 10004KT 12/10 A3026 RMK A01 T01230095  RH  083%=      5-min Rain = 0
KWE2 101228Z 10005KT 12/10 A3026 RMK A01 T01240095  RH  083%=      5-min Rain = 0
KWE2 101229Z 10004KT 12/10 A3026 RMK A01 T01240096  RH  083%=      5-min Rain = 0
KWE2 101230Z 10004KT 12/10 A3026 RMK A01 T01230095  RH  083%=      5-min Rain = 0
KWE2 101231Z 10004KT 12/10 A3026 RMK A01 T01240095  RH  083%=      5-min Rain = 0
KWE2 101232Z 10004KT 12/10 A3026 RMK A01 T01240095  RH  083%=      5-min Rain = 0
KWE2 101233Z 10004KT 12/10 A3026 RMK A01 T01240095  RH  083%=      5-min Rain = 0
KWE2 101234Z 10004KT 12/10 A3026 RMK A01 T01240095  RH  082%=      5-min Rain = 0
KWE2 101235Z 10004KT 12/10 A3026 RMK A01 T01240095  RH  082%=      5-min Rain = 0
KWE2 101236Z 11004KT 12/10 A3026 RMK A01 T01240095  RH  082%=      5-min Rain = 0
KWE2 101237Z 10004KT 13/10 A3026 RMK A01 T01250096  RH  082%=      5-min Rain = 0
KWE2 101238Z 11004KT 13/10 A3026 RMK A01 T01250096  RH  082%=      5-min Rain = 0
KWE2 101239Z 11004KT 13/10 A3026 RMK A01 T01250096  RH  083%=      5-min Rain = 0
KWE2 101240Z 11003KT 13/10 A3026 RMK A01 T01250096  RH  083%=      5-min Rain = 0
KWE2 101241Z 11003KT 13/10 A3026 RMK A01 T01250096  RH  083%=      5-min Rain = 0
KWE2 101242Z 11003KT 13/10 A3026 RMK A01 T01250096  RH  083%=      5-min Rain = 0
KWE2 101243Z 11003KT 12/10 A3026 RMK A01 T01240096  RH  083%=      5-min Rain = 0
KWE2 101244Z 11003KT 12/10 A3026 RMK A01 T01240096  RH  083%=      5-min Rain = 0
KWE2 101245Z 11002KT 12/10 A3026 RMK A01 T01240095  RH  083%=      5-min Rain = 0
KWE2 101246Z 11002KT 12/10 A3026 RMK A01 T01240095  RH  083%=      5-min Rain = 0
KWE2 101247Z 11002KT 12/10 A3026 RMK A01 T01230095  RH  083%=      5-min Rain = 0
KWE2 101248Z 10002KT 12/10 A3026 RMK A01 T01230096  RH  083%=      5-min Rain = 0
KWE2 101249Z 10002KT 12/10 A3026 RMK A01 T01240096  RH  083%=      5-min Rain = 0
KWE2 101250Z 10002KT 12/10 A3026 RMK A01 T01240096  RH  083%=      5-min Rain = 0
KWE2 101251Z 10002KT 13/10 A3026 RMK A01 T01250097  RH  083%=      5-min Rain = 0
KWE2 101252Z 10003KT 13/10 A3026 RMK A01 T01270097  RH  082%=      5-min Rain = 0
KWE2 101253Z 10002KT 13/10 A3027 RMK A01 T01280097  RH  082%=      5-min Rain = 0
KWE2 101254Z 10002KT 13/10 A3026 RMK A01 T01290097  RH  081%=      5-min Rain = 0
KWE2 101255Z 10003KT 13/10 A3027 RMK A01 T01300097  RH  080%=      5-min Rain = 0
KWE2 101256Z 09003KT 13/10 A3027 RMK A01 T01310097  RH  080%=      5-min Rain = 0
KWE2 101257Z 09003KT 13/10 A3027 RMK A01 T01320097  RH  079%=      5-min Rain = 0
KWE2 101258Z 09003KT 13/10 A3027 RMK A01 T01330097  RH  079%=      5-min Rain = 0
KWE2 101259Z 09003KT 13/10 A3027 RMK A01 T01330096  RH  079%=      5-min Rain = 0
KWE2 101300Z 09003KT 13/10 A3027 RMK A01 T01340097  RH  078%=      5-min Rain = 0
KWE2 101301Z 09003KT 13/10 A3027 RMK A01 T01340097  RH  078%=      5-min Rain = 0
KWE2 101302Z 09003KT 14/10 A3027 RMK A01 T01350097  RH  077%=      5-min Rain = 0
KWE2 101303Z 10003KT 14/10 A3027 RMK A01 T01360097  RH  077%=      5-min Rain = 0
KWE2 101304Z 10003KT 14/10 A3027 RMK A01 T01370098  RH  077%=      5-min Rain = 0
KWE2 101305Z 10003KT 14/10 A3027 RMK A01 T01380098  RH  077%=      5-min Rain = 0
KWE2 101306Z 10004KT 14/10 A3027 RMK A01 T01380098  RH  077%=      5-min Rain = 0
KWE2 101307Z 09004KT 14/10 A3027 RMK A01 T01380099  RH  077%=      5-min Rain = 0
KWE2 101308Z 09004KT 14/10 A3027 RMK A01 T01390099  RH  077%=      5-min Rain = 0
KWE2 101309Z 09003KT 14/10 A3027 RMK A01 T01390100  RH  077%=      5-min Rain = 0
KWE2 101310Z 09003KT 14/10 A3027 RMK A01 T01390100  RH  077%=      5-min Rain = 0
KWE2 101311Z 09003KT 14/10 A3027 RMK A01 T01410099  RH  076%=      5-min Rain = 0
KWE2 101312Z 09002KT 14/10 A3027 RMK A01 T01420099  RH  075%=      5-min Rain = 0
KWE2 101313Z 08002KT 14/10 A3027 RMK A01 T01430099  RH  075%=      5-min Rain = 0
KWE2 101314Z 08002KT 15/10 A3027 RMK A01 T01450100  RH  074%=      5-min Rain = 0
KWE2 101315Z 09003KT 15/10 A3027 RMK A01 T01450099  RH  074%=      5-min Rain = 0
KWE2 101316Z 08003KT 15/10 A3027 RMK A01 T01460099  RH  073%=      5-min Rain = 0
KWE2 101317Z 08003KT 15/10 A3027 RMK A01 T01470099  RH  073%=      5-min Rain = 0
KWE2 101318Z 09003KT 15/10 A3027 RMK A01 T01470100  RH  073%=      5-min Rain = 0
KWE2 101319Z 09004KT 15/10 A3027 RMK A01 T01470099  RH  073%=      5-min Rain = 0
KWE2 101320Z 09004KT 15/10 A3027 RMK A01 T01470099  RH  073%=      5-min Rain = 0
KWE2 101321Z 10004KT 15/10 A3027 RMK A01 T01470100  RH  073%=      5-min Rain = 0
KWE2 101322Z 09004KT 15/10 A3027 RMK A01 T01470100  RH  073%=      5-min Rain = 0
KWE2 101323Z 09003KT 15/10 A3027 RMK A01 T01470100  RH  073%=      5-min Rain = 0
KWE2 101324Z 09004KT 15/10 A3027 RMK A01 T01470100  RH  073%=      5-min Rain = 0
KWE2 101325Z 09005KT 15/10 A3027 RMK A01 T01480101  RH  074%=      5-min Rain = 0
KWE2 101326Z 10005KT 15/10 A3027 RMK A01 T01480101  RH  073%=      5-min Rain = 0
KWE2 101327Z 10005KT 15/10 A3027 RMK A01 T01480101  RH  073%=      5-min Rain = 0
KWE2 101328Z 10005KT 15/10 A3027 RMK A01 T01480102  RH  073%=      5-min Rain = 0
KWE2 101329Z 10005KT 15/10 A3028 RMK A01 T01490101  RH  073%=      5-min Rain = 0
KWE2 101330Z 10006KT 15/10 A3028 RMK A01 T01490101  RH  073%=      5-min Rain = 0
KWE2 101331Z 10005KT 15/10 A3028 RMK A01 T01490102  RH  073%=      5-min Rain = 0
KWE2 101332Z 09005KT 15/10 A3028 RMK A01 T01480102  RH  074%=      5-min Rain = 0
KWE2 101333Z 10005KT 15/10 A3028 RMK A01 T01480102  RH  074%=      5-min Rain = 0
KWE2 101334Z 10004KT 15/10 A3028 RMK A01 T01480103  RH  074%=      5-min Rain = 0
KWE2 101335Z 10004KT 15/10 A3028 RMK A01 T01490103  RH  074%=      5-min Rain = 0
KWE2 101336Z 10005KT 15/10 A3028 RMK A01 T01490103  RH  074%=      5-min Rain = 0
KWE2 101337Z 10005KT 15/10 A3028 RMK A01 T01500103  RH  073%=      5-min Rain = 0
KWE2 101338Z 10005KT 15/10 A3028 RMK A01 T01500103  RH  073%=      5-min Rain = 0
KWE2 101339Z 09004KT 15/10 A3028 RMK A01 T01500104  RH  073%=      5-min Rain = 0
KWE2 101340Z 10005KT 15/10 A3028 RMK A01 T01510104  RH  073%=      5-min Rain = 0
KWE2 101341Z 10005KT 15/10 A3028 RMK A01 T01510104  RH  073%=      5-min Rain = 0
KWE2 101342Z 10005KT 15/10 A3028 RMK A01 T01510103  RH  073%=      5-min Rain = 0
KWE2 101343Z 09004KT 15/10 A3028 RMK A01 T01520104  RH  073%=      5-min Rain = 0
KWE2 101344Z 10004KT 15/10 A3028 RMK A01 T01520104  RH  073%=      5-min Rain = 0
KWE2 101345Z 09004KT 15/11 A3028 RMK A01 T01530105  RH  073%=      5-min Rain = 0
KWE2 101346Z 10004KT 15/11 A3028 RMK A01 T01540105  RH  073%=      5-min Rain = 0
KWE2 101347Z 10004KT 16/11 A3028 RMK A01 T01550105  RH  072%=      5-min Rain = 0
KWE2 101348Z 11004KT 16/11 A3028 RMK A01 T01560105  RH  072%=      5-min Rain = 0
KWE2 101349Z 10004KT 16/11 A3028 RMK A01 T01560105  RH  072%=      5-min Rain = 0
KWE2 101350Z 10004KT 16/11 A3028 RMK A01 T01570105  RH  072%=      5-min Rain = 0
KWE2 101351Z 10004KT 16/11 A3028 RMK A01 T01570106  RH  072%=      5-min Rain = 0
KWE2 101352Z 11006KT 16/11 A3028 RMK A01 T01590107  RH  071%=      5-min Rain = 0
KWE2 101353Z 11005KT 16/11 A3028 RMK A01 T01600106  RH  070%=      5-min Rain = 0
KWE2 101354Z 11005KT 16/11 A3028 RMK A01 T01600106  RH  070%=      5-min Rain = 0
KWE2 101355Z 10005KT 16/11 A3028 RMK A01 T01610106  RH  070%=      5-min Rain = 0
KWE2 101356Z 11004KT 16/11 A3028 RMK A01 T01620107  RH  070%=      5-min Rain = 0
KWE2 101357Z 11004KT 16/11 A3028 RMK A01 T01630110  RH  071%=      5-min Rain = 0
KWE2 101358Z 11004KT 16/11 A3028 RMK A01 T01640109  RH  070%=      5-min Rain = 0
KWE2 101359Z 11004KT 17/11 A3028 RMK A01 T01650109  RH  069%=      5-min Rain = 0
KWE2 101400Z 11004KT 17/11 A3028 RMK A01 T01650109  RH  069%=      5-min Rain = 0
KWE2 101401Z 12004KT 17/11 A3028 RMK A01 T01650110  RH  070%=      5-min Rain = 0
KWE2 101402Z 12005KT 17/11 A3028 RMK A01 T01650110  RH  070%=      5-min Rain = 0
KWE2 101403Z 11004KT 17/11 A3028 RMK A01 T01650109  RH  069%=      5-min Rain = 0
KWE2 101404Z 12004KT 17/11 A3028 RMK A01 T01660111  RH  070%=      5-min Rain = 0
KWE2 101405Z 13004KT 17/11 A3028 RMK A01 T01680112  RH  069%=      5-min Rain = 0
KWE2 101406Z 13004KT 17/11 A3028 RMK A01 T01700110  RH  068%=      5-min Rain = 0
KWE2 101407Z 13004KT 17/11 A3028 RMK A01 T01720110  RH  067%=      5-min Rain = 0
KWE2 101408Z 14004KT 17/11 A3028 RMK A01 T01730110  RH  067%=      5-min Rain = 0
KWE2 101409Z 13005KT 17/11 A3028 RMK A01 T01730110  RH  066%=      5-min Rain = 0
KWE2 101410Z 12004KT 17/11 A3028 RMK A01 T01740110  RH  066%=      5-min Rain = 0
KWE2 101411Z 12005KT 18/11 A3028 RMK A01 T01750108  RH  065%=      5-min Rain = 0
KWE2 101412Z 13005KT 18/11 A3028 RMK A01 T01750109  RH  065%=      5-min Rain = 0
KWE2 101413Z 12004KT 18/11 A3028 RMK A01 T01760111  RH  066%=      5-min Rain = 0
KWE2 101414Z 13004KT 18/11 A3028 RMK A01 T01770110  RH  065%=      5-min Rain = 0
KWE2 101415Z 13005KT 18/11 A3028 RMK A01 T01780112  RH  065%=      5-min Rain = 0
KWE2 101421Z 12007KT 18/11 A3028 RMK A01 T01830110  RH  062%=      5-min Rain = 0
KWE2 101422Z 12006KT 18/11 A3028 RMK A01 T01840109  RH  062%=      5-min Rain = 0
KWE2 101423Z 12005KT 18/11 A3028 RMK A01 T01840109  RH  062%=      5-min Rain = 0
KWE2 101424Z 13006KT 19/11 A3028 RMK A01 T01850109  RH  061%=      5-min Rain = 0
KWE2 101425Z 12005KT 19/11 A3028 RMK A01 T01860110  RH  061%=      5-min Rain = 0
KWE2 101426Z 13005KT 19/11 A3028 RMK A01 T01880112  RH  061%=      5-min Rain = 0
KWE2 101427Z 13005KT 19/11 A3029 RMK A01 T01890113  RH  061%=      5-min Rain = 0
KWE2 101428Z 13006KT 19/11 A3029 RMK A01 T01900111  RH  060%=      5-min Rain = 0
KWE2 101429Z 12006KT 19/11 A3029 RMK A01 T01910111  RH  060%=      5-min Rain = 0
KWE2 101430Z 13004KT 19/11 A3029 RMK A01 T01910112  RH  060%=      5-min Rain = 0
KWE2 101431Z 13005KT 19/11 A3029 RMK A01 T01920111  RH  059%=      5-min Rain = 0
KWE2 101432Z 12006KT 19/11 A3029 RMK A01 T01930111  RH  059%=      5-min Rain = 0
KWE2 101433Z 11005KT 19/11 A3029 RMK A01 T01930110  RH  059%=      5-min Rain = 0
KWE2 101434Z 12005KT 19/11 A3029 RMK A01 T01930112  RH  059%=      5-min Rain = 0
KWE2 101435Z 12005KT 19/11 A3029 RMK A01 T01940111  RH  059%=      5-min Rain = 0
KWE2 101436Z 12005KT 19/11 A3029 RMK A01 T01940112  RH  059%=      5-min Rain = 0
KWE2 101437Z 12004KT 20/11 A3029 RMK A01 T01960113  RH  059%=      5-min Rain = 0
KWE2 101438Z 12005KT 20/11 A3029 RMK A01 T01970112  RH  058%=      5-min Rain = 0
KWE2 101439Z 14006KT 20/11 A3029 RMK A01 T01970109  RH  057%=      5-min Rain = 0
KWE2 101440Z 14005KT 20/11 A3029 RMK A01 T01970110  RH  057%=      5-min Rain = 0
KWE2 101441Z 13005KT 20/11 A3029 RMK A01 T01970110  RH  057%=      5-min Rain = 0
KWE2 101442Z 13004KT 20/11 A3029 RMK A01 T01970111  RH  057%=      5-min Rain = 0
KWE2 101443Z 13004KT 20/11 A3029 RMK A01 T01970112  RH  058%=      5-min Rain = 0
KWE2 101444Z 14005KT 20/11 A3029 RMK A01 T01980113  RH  058%=      5-min Rain = 0
KWE2 101445Z 14006KT 20/11 A3029 RMK A01 T02000112  RH  057%=      5-min Rain = 0
KWE2 101446Z 15005KT 20/11 A3029 RMK A01 T02010113  RH  057%=      5-min Rain = 0
KWE2 101447Z 16005KT 20/11 A3029 RMK A01 T02010113  RH  057%=      5-min Rain = 0
KWE2 101448Z 15006KT 20/11 A3029 RMK A01 T02020110  RH  055%=      5-min Rain = 0
KWE2 101449Z 14006KT 20/11 A3029 RMK A01 T02020108  RH  055%=      5-min Rain = 0
KWE2 101450Z 15007KT 20/11 A3029 RMK A01 T02020112  RH  056%=      5-min Rain = 0
KWE2 101451Z 15005KT 20/11 A3029 RMK A01 T02040109  RH  055%=      5-min Rain = 0
KWE2 101452Z 15005KT 20/11 A3029 RMK A01 T02030110  RH  055%=      5-min Rain = 0
KWE2 101453Z 16005KT 20/11 A3029 RMK A01 T02030110  RH  055%=      5-min Rain = 0
KWE2 101454Z 16006KT 20/11 A3029 RMK A01 T02030110  RH  055%=      5-min Rain = 0
KWE2 101455Z 16007KT 20/11 A3029 RMK A01 T02040110  RH  055%=      5-min Rain = 0
KWE2 101456Z 17007KT 20/11 A3029 RMK A01 T02040109  RH  054%=      5-min Rain = 0
KWE2 101457Z 19007KT 21/11 A3029 RMK A01 T02050108  RH  054%=      5-min Rain = 0
KWE2 101458Z 18006KT 21/11 A3029 RMK A01 T02050110  RH  054%=      5-min Rain = 0
KWE2 101459Z 16005KT 20/11 A3029 RMK A01 T02040110  RH  055%=      5-min Rain = 0
KWE2 101500Z 15004KT 21/11 A3029 RMK A01 T02050111  RH  055%=      5-min Rain = 0
KWE2 101501Z 16005KT 21/11 A3029 RMK A01 T02070112  RH  055%=      5-min Rain = 0
KWE2 101502Z 16006KT 21/11 A3029 RMK A01 T02080112  RH  054%=      5-min Rain = 0
KWE2 101503Z 16005KT 21/11 A3029 RMK A01 T02090111  RH  054%=      5-min Rain = 0
KWE2 101504Z 15006KT 21/11 A3029 RMK A01 T02090110  RH  053%=      5-min Rain = 0
KWE2 101505Z 17005KT 21/11 A3029 RMK A01 T02100111  RH  053%=      5-min Rain = 0
KWE2 101506Z 18004KT 21/11 A3029 RMK A01 T02100113  RH  054%=      5-min Rain = 0
KWE2 101507Z 18005KT 21/11 A3029 RMK A01 T02110110  RH  052%=      5-min Rain = 0
KWE2 101508Z 18005KT 21/11 A3029 RMK A01 T02110111  RH  053%=      5-min Rain = 0
KWE2 101509Z 18006KT 21/11 A3029 RMK A01 T02120110  RH  052%=      5-min Rain = 0
KWE2 101510Z 19008G13KT 21/11 A3029 RMK A01 T02120108  RH  051%=      5-min Rain = 0
KWE2 101511Z 18008KT 21/11 A3029 RMK A01 T02120107  RH  051%=      5-min Rain = 0
KWE2 101512Z 18008KT 21/11 A3029 RMK A01 T02110109  RH  052%=      5-min Rain = 0
KWE2 101513Z 17008KT 21/11 A3029 RMK A01 T02120110  RH  052%=      5-min Rain = 0
KWE2 101514Z 17008KT 21/11 A3029 RMK A01 T02120109  RH  051%=      5-min Rain = 0
KWE2 101515Z 17009KT 21/11 A3029 RMK A01 T02130108  RH  051%=      5-min Rain = 0
KWE2 101516Z 18009KT 21/11 A3029 RMK A01 T02140107  RH  051%=      5-min Rain = 0
KWE2 101517Z 17009KT 21/11 A3029 RMK A01 T02140107  RH  051%=      5-min Rain = 0
KWE2 101518Z 18008KT 21/11 A3029 RMK A01 T02130108  RH  051%=      5-min Rain = 0
KWE2 101519Z 19009KT 21/11 A3029 RMK A01 T02140108  RH  051%=      5-min Rain = 0
KWE2 101520Z 18010KT 22/11 A3029 RMK A01 T02150107  RH  050%=      5-min Rain = 0
KWE2 101521Z 17008KT 21/11 A3029 RMK A01 T02140109  RH  051%=      5-min Rain = 0
KWE2 101522Z 19006KT 22/11 A3029 RMK A01 T02150110  RH  051%=      5-min Rain = 0
KWE2 101523Z 17007KT 22/11 A3029 RMK A01 T02150110  RH  051%=      5-min Rain = 0
KWE2 101524Z 17008KT 22/11 A3029 RMK A01 T02160110  RH  051%=      5-min Rain = 0
KWE2 101525Z 18008KT 22/11 A3029 RMK A01 T02160109  RH  050%=      5-min Rain = 0
KWE2 101526Z 18008KT 22/11 A3029 RMK A01 T02160108  RH  050%=      5-min Rain = 0
KWE2 101527Z 18008KT 22/11 A3029 RMK A01 T02160108  RH  050%=      5-min Rain = 0
KWE2 101528Z 17007KT 22/11 A3029 RMK A01 T02160108  RH  050%=      5-min Rain = 0
KWE2 101529Z 15008KT 22/11 A3029 RMK A01 T02160110  RH  051%=      5-min Rain = 0
KWE2 101530Z 16007KT 22/11 A3029 RMK A01 T02170108  RH  050%=      5-min Rain = 0
KWE2 101531Z 15008KT 22/11 A3029 RMK A01 T02180108  RH  050%=      5-min Rain = 0
KWE2 101532Z 16009KT 22/11 A3029 RMK A01 T02190109  RH  050%=      5-min Rain = 0
KWE2 101533Z 17009KT 22/11 A303 RMK A01 T02200108  RH  049%=      5-min Rain = 0
KWE2 101534Z 17009KT 22/11 A303 RMK A01 T02190108  RH  049%=      5-min Rain = 0
KWE2 101535Z 18008KT 22/11 A303 RMK A01 T02180109  RH  050%=      5-min Rain = 0
KWE2 101536Z 18008KT 22/11 A303 RMK A01 T02180109  RH  050%=      5-min Rain = 0
KWE2 101537Z 19008KT 22/11 A3029 RMK A01 T02180110  RH  050%=      5-min Rain = 0
KWE2 101538Z 17007KT 22/11 A303 RMK A01 T02180110  RH  050%=      5-min Rain = 0
KWE2 101539Z 15005KT 22/11 A303 RMK A01 T02190113  RH  051%=      5-min Rain = 0
KWE2 101540Z 14008KT 22/11 A303 RMK A01 T02210111  RH  049%=      5-min Rain = 0
KWE2 101541Z 14009KT 22/11 A303 RMK A01 T02230109  RH  048%=      5-min Rain = 0
KWE2 101542Z 15009KT 22/11 A303 RMK A01 T02230111  RH  049%=      5-min Rain = 0
KWE2 101543Z 15009KT 22/11 A303 RMK A01 T02240109  RH  048%=      5-min Rain = 0
KWE2 101544Z 16010KT 22/11 A303 RMK A01 T02240110  RH  048%=      5-min Rain = 0
KWE2 101545Z 16009KT 22/11 A303 RMK A01 T02230109  RH  048%=      5-min Rain = 0
KWE2 101546Z 16009KT 22/11 A303 RMK A01 T02210108  RH  049%=      5-min Rain = 0
KWE2 101547Z 15008KT 22/11 A303 RMK A01 T02210107  RH  048%=      5-min Rain = 0
KWE2 101548Z 16007KT 22/11 A303 RMK A01 T02220109  RH  049%=      5-min Rain = 0
KWE2 101549Z 15008KT 22/11 A303 RMK A01 T02240109  RH  048%=      5-min Rain = 0
KWE2 101550Z 15011KT 23/11 A303 RMK A01 T02260108  RH  047%=      5-min Rain = 0
KWE2 101551Z 15009KT 23/11 A303 RMK A01 T02260107  RH  047%=      5-min Rain = 0
KWE2 101552Z 17008KT 23/11 A303 RMK A01 T02260109  RH  047%=      5-min Rain = 0
KWE2 101553Z 16008KT 23/11 A303 RMK A01 T02260110  RH  048%=      5-min Rain = 0
KWE2 101554Z 16008KT 23/11 A303 RMK A01 T02260108  RH  047%=      5-min Rain = 0
KWE2 101555Z 17008KT 23/11 A303 RMK A01 T02260109  RH  048%=      5-min Rain = 0
KWE2 101556Z 18009KT 23/11 A303 RMK A01 T02260108  RH  047%=      5-min Rain = 0
KWE2 101557Z 19007KT 23/11 A303 RMK A01 T02260107  RH  047%=      5-min Rain = 0
KWE2 101558Z 19009G14KT 23/11 A3029 RMK A01 T02250109  RH  048%=      5-min Rain = 0
KWE2 101559Z 15011KT 23/11 A3029 RMK A01 T02250110  RH  048%=      5-min Rain = 0
KWE2 101600Z 14009KT 23/11 A303 RMK A01 T02260108  RH  047%=      5-min Rain = 0
KWE2 101601Z 15007KT 23/11 A303 RMK A01 T02270110  RH  047%=      5-min Rain = 0
KWE2 101602Z 14007KT 23/11 A303 RMK A01 T02300112  RH  047%=      5-min Rain = 0
KWE2 101603Z 16006KT 23/11 A303 RMK A01 T02320111  RH  046%=      5-min Rain = 0
KWE2 101604Z 17008KT 23/11 A303 RMK A01 T02340113  RH  047%=      5-min Rain = 0
KWE2 101605Z 17007KT 23/11 A303 RMK A01 T02340109  RH  045%=      5-min Rain = 0
KWE2 101606Z 17008KT 23/11 A3029 RMK A01 T02300108  RH  046%=      5-min Rain = 0
KWE2 101607Z 16007KT 23/11 A3029 RMK A01 T02290113  RH  048%=      5-min Rain = 0
KWE2 101608Z 17007KT 23/11 A3029 RMK A01 T02310112  RH  047%=      5-min Rain = 0
KWE2 101609Z 16007KT 23/11 A3029 RMK A01 T02320111  RH  046%=      5-min Rain = 0
KWE2 101610Z 15008KT 23/11 A3029 RMK A01 T02340113  RH  047%=      5-min Rain = 0
KWE2 101611Z 16009KT 24/11 A3029 RMK A01 T02350112  RH  046%=      5-min Rain = 0
KWE2 101612Z 16009KT 23/11 A3029 RMK A01 T02340109  RH  045%=      5-min Rain = 0
KWE2 101613Z 15009KT 23/11 A3029 RMK A01 T02310108  RH  046%=      5-min Rain = 0
KWE2 101614Z 14005KT 23/11 A3029 RMK A01 T02300105  RH  045%=      5-min Rain = 0
KWE2 101615Z 14007KT 23/11 A3029 RMK A01 T02310107  RH  046%=      5-min Rain = 0
KWE2 101616Z 14010KT 23/11 A3029 RMK A01 T02320111  RH  046%=      5-min Rain = 0
KWE2 101617Z 14010KT 23/11 A3029 RMK A01 T02330110  RH  046%=      5-min Rain = 0
KWE2 101618Z 15008KT 23/11 A3029 RMK A01 T02330111  RH  046%=      5-min Rain = 0
KWE2 101619Z 15009KT 24/12 A3029 RMK A01 T02350116  RH  047%=      5-min Rain = 0
KWE2 101620Z 15008KT 24/11 A3029 RMK A01 T02360111  RH  045%=      5-min Rain = 0
KWE2 101621Z 14007KT 23/11 A3029 RMK A01 T02340110  RH  046%=      5-min Rain = 0
KWE2 101622Z 14008KT 23/11 A3029 RMK A01 T02340109  RH  045%=      5-min Rain = 0
KWE2 101623Z 15009KT 23/11 A3029 RMK A01 T02340110  RH  046%=      5-min Rain = 0
KWE2 101624Z 17009KT 24/11 A3029 RMK A01 T02350110  RH  046%=      5-min Rain = 0
KWE2 101625Z 16007KT 23/11 A3029 RMK A01 T02330110  RH  046%=      5-min Rain = 0
KWE2 101626Z 16006KT 23/11 A3029 RMK A01 T02330107  RH  045%=      5-min Rain = 0
KWE2 101627Z 16007KT 23/11 A3029 RMK A01 T02340109  RH  045%=      5-min Rain = 0
KWE2 101628Z 18006KT 23/11 A3029 RMK A01 T02340108  RH  045%=      5-min Rain = 0
KWE2 101629Z 17008KT 24/11 A3029 RMK A01 T02350107  RH  045%=      5-min Rain = 0
KWE2 101630Z 17006KT 23/11 A3029 RMK A01 T02320108  RH  046%=      5-min Rain = 0
KWE2 101631Z 14006KT 23/11 A3029 RMK A01 T02310112  RH  047%=      5-min Rain = 0
KWE2 101632Z 15008KT 24/12 A3029 RMK A01 T02360115  RH  047%=      5-min Rain = 0
KWE2 101633Z 17008KT 24/11 A3029 RMK A01 T02380110  RH  044%=      5-min Rain = 0
KWE2 101634Z 14008KT 24/11 A3029 RMK A01 T02390111  RH  045%=      5-min Rain = 0
KWE2 101635Z 15005KT 24/12 A3029 RMK A01 T02390115  RH  046%=      5-min Rain = 0
KWE2 101636Z 14006KT 24/11 A3029 RMK A01 T02420112  RH  044%=      5-min Rain = 0
KWE2 101637Z 19006KT 24/11 A3029 RMK A01 T02430112  RH  044%=      5-min Rain = 0
KWE2 101638Z 17006KT 24/11 A3029 RMK A01 T02420111  RH  044%=      5-min Rain = 0
KWE2 101639Z 18005KT 24/11 A3029 RMK A01 T02400112  RH  044%=      5-min Rain = 0
KWE2 101640Z 13008KT 24/11 A3029 RMK A01 T02400111  RH  044%=      5-min Rain = 0
KWE2 101641Z 14005KT 24/11 A3029 RMK A01 T02400109  RH  044%=      5-min Rain = 0
KWE2 101642Z 12006KT 24/11 A3029 RMK A01 T02380113  RH  045%=      5-min Rain = 0
KWE2 101643Z 16004KT 24/12 A3029 RMK A01 T02410115  RH  045%=      5-min Rain = 0
KWE2 101644Z 15005KT 24/11 A3029 RMK A01 T02430114  RH  044%=      5-min Rain = 0
KWE2 101645Z 14007KT 25/11 A3029 RMK A01 T02450111  RH  043%=      5-min Rain = 0
KWE2 101646Z 18009KT 24/11 A3029 RMK A01 T02430112  RH  044%=      5-min Rain = 0
KWE2 101647Z 16006KT 24/11 A3029 RMK A01 T02410111  RH  044%=      5-min Rain = 0
KWE2 101648Z 15005KT 24/11 A3029 RMK A01 T02400112  RH  044%=      5-min Rain = 0
KWE2 101649Z 14008KT 24/11 A3029 RMK A01 T02420114  RH  045%=      5-min Rain = 0
KWE2 101650Z 14008KT 24/11 A3029 RMK A01 T02430111  RH  043%=      5-min Rain = 0
KWE2 101651Z 13008KT 24/11 A3029 RMK A01 T02430110  RH  043%=      5-min Rain = 0
KWE2 101652Z 15009KT 24/11 A3029 RMK A01 T02410110  RH  044%=      5-min Rain = 0
KWE2 101653Z 14007G12KT 24/11 A3029 RMK A01 T02390106  RH  043%=      5-min Rain = 0
KWE2 101654Z 16005KT 24/11 A3029 RMK A01 T02370108  RH  044%=      5-min Rain = 0
KWE2 101655Z 16005KT 24/11 A3029 RMK A01 T02380110  RH  045%=      5-min Rain = 0
KWE2 101656Z 16005KT 24/11 A3029 RMK A01 T02410108  RH  043%=      5-min Rain = 0
KWE2 101657Z 17005KT 24/11 A3029 RMK A01 T02420110  RH  043%=      5-min Rain = 0
KWE2 101658Z 18008KT 24/11 A3029 RMK A01 T02410109  RH  043%=      5-min Rain = 0
KWE2 101659Z 17007KT 24/11 A3029 RMK A01 T02380112  RH  045%=      5-min Rain = 0
KWE2 101700Z 14006KT 24/11 A3029 RMK A01 T02390109  RH  044%=      5-min Rain = 0
KWE2 101701Z 13006KT 24/11 A3029 RMK A01 T02400109  RH  044%=      5-min Rain = 0
KWE2 101702Z 15007KT 24/11 A3029 RMK A01 T02410109  RH  043%=      5-min Rain = 0
KWE2 101703Z 13006KT 24/11 A3029 RMK A01 T02410108  RH  043%=      5-min Rain = 0
KWE2 101704Z 12005KT 24/11 A3029 RMK A01 T02400109  RH  044%=      5-min Rain = 0
KWE2 101705Z 13007KT 24/11 A3029 RMK A01 T02420110  RH  043%=      5-min Rain = 0
KWE2 101706Z 14006KT 24/11 A3029 RMK A01 T02430112  RH  044%=      5-min Rain = 0
KWE2 101707Z 13010KT 25/11 A3029 RMK A01 T02450114  RH  044%=      5-min Rain = 0
KWE2 101708Z 12006KT 25/11 A3029 RMK A01 T02450109  RH  042%=      5-min Rain = 0
KWE2 101709Z 12009KT 24/11 A3029 RMK A01 T02420109  RH  043%=      5-min Rain = 0
KWE2 101710Z 12008KT 24/11 A3029 RMK A01 T02420111  RH  044%=      5-min Rain = 0
KWE2 101711Z 12009KT 24/11 A3028 RMK A01 T02430108  RH  043%=      5-min Rain = 0
KWE2 101712Z 12008KT 24/11 A3028 RMK A01 T02420109  RH  043%=      5-min Rain = 0
KWE2 101713Z 13008KT 24/11 A3028 RMK A01 T02410108  RH  043%=      5-min Rain = 0
KWE2 101714Z 14006KT 24/11 A3028 RMK A01 T02410109  RH  043%=      5-min Rain = 0
KWE2 101715Z 12008KT 24/11 A3028 RMK A01 T02440113  RH  044%=      5-min Rain = 0
KWE2 101716Z 12008KT 25/11 A3028 RMK A01 T02460112  RH  043%=      5-min Rain = 0
KWE2 101717Z 11007KT 25/11 A3028 RMK A01 T02450109  RH  042%=      5-min Rain = 0
KWE2 101718Z 12006KT 24/11 A3029 RMK A01 T02440111  RH  043%=      5-min Rain = 0
KWE2 101719Z 13007KT 25/11 A3028 RMK A01 T02470112  RH  043%=      5-min Rain = 0
KWE2 101720Z 15009KT 25/11 A3028 RMK A01 T02480113  RH  043%=      5-min Rain = 0
KWE2 101721Z 17006KT 25/11 A3028 RMK A01 T02490111  RH  042%=      5-min Rain = 0
KWE2 101722Z 18006KT 25/11 A3028 RMK A01 T02470110  RH  042%=      5-min Rain = 0
KWE2 101723Z 15005KT 25/11 A3028 RMK A01 T02470110  RH  042%=      5-min Rain = 0
KWE2 101724Z 17004KT 25/11 A3028 RMK A01 T02460108  RH  042%=      5-min Rain = 0
KWE2 101725Z 16004KT 25/11 A3028 RMK A01 T02450109  RH  042%=      5-min Rain = 0
KWE2 101726Z 15007KT 25/11 A3028 RMK A01 T02460113  RH  043%=      5-min Rain = 0
KWE2 101727Z 15005KT 25/11 A3028 RMK A01 T02480114  RH  043%=      5-min Rain = 0
KWE2 101728Z 13007KT 25/12 A3028 RMK A01 T02510116  RH  043%=      5-min Rain = 0
KWE2 101729Z 13007KT 25/11 A3028 RMK A01 T02520113  RH  042%=      5-min Rain = 0
KWE2 101730Z 11006KT 25/11 A3028 RMK A01 T02510111  RH  042%=      5-min Rain = 0
KWE2 101731Z 14007KT 25/11 A3028 RMK A01 T02510113  RH  042%=      5-min Rain = 0
KWE2 101732Z 14005KT 25/11 A3028 RMK A01 T02500110  RH  041%=      5-min Rain = 0
KWE2 101733Z 12007KT 25/11 A3028 RMK A01 T02480112  RH  042%=      5-min Rain = 0
KWE2 101734Z 15009KT 25/11 A3028 RMK A01 T02480111  RH  042%=      5-min Rain = 0
KWE2 101735Z 16009KT 25/11 A3028 RMK A01 T02480111  RH  042%=      5-min Rain = 0
KWE2 101736Z 17008KT 25/11 A3028 RMK A01 T02480111  RH  042%=      5-min Rain = 0
KWE2 101737Z 17004KT 25/11 A3028 RMK A01 T02470110  RH  042%=      5-min Rain = 0
KWE2 101738Z 17004KT 25/11 A3028 RMK A01 T02470109  RH  042%=      5-min Rain = 0
KWE2 101739Z 18004KT 25/11 A3028 RMK A01 T02480110  RH  042%=      5-min Rain = 0
KWE2 101740Z 16004KT 25/11 A3028 RMK A01 T02490108  RH  041%=      5-min Rain = 0
KWE2 101741Z 13006KT 25/11 A3028 RMK A01 T02490109  RH  041%=      5-min Rain = 0
KWE2 101742Z 18002KT 25/11 A3028 RMK A01 T02490107  RH  041%=      5-min Rain = 0
KWE2 101743Z 14005KT 25/11 A3028 RMK A01 T02490107  RH  041%=      5-min Rain = 0
KWE2 101744Z 17006KT 25/11 A3028 RMK A01 T02520112  RH  041%=      5-min Rain = 0
KWE2 101745Z 18006KT 26/11 A3028 RMK A01 T02550110  RH  040%=      5-min Rain = 0
KWE2 101746Z 18004KT 26/11 A3028 RMK A01 T02550108  RH  040%=      5-min Rain = 0
KWE2 101747Z 14007KT 26/11 A3028 RMK A01 T02550110  RH  040%=      5-min Rain = 0
KWE2 101748Z 14004KT 25/11 A3028 RMK A01 T02540109  RH  040%=      5-min Rain = 0
KWE2 101749Z 15005KT 25/11 A3028 RMK A01 T02540110  RH  040%=      5-min Rain = 0
KWE2 101750Z 14004KT 26/11 A3028 RMK A01 T02560109  RH  040%=      5-min Rain = 0
KWE2 101751Z 14006KT 26/11 A3028 RMK A01 T02560112  RH  041%=      5-min Rain = 0
KWE2 101752Z 12008KT 26/11 A3028 RMK A01 T02570110  RH  040%=      5-min Rain = 0
KWE2 101753Z 10008KT 26/11 A3028 RMK A01 T02560106  RH  039%=      5-min Rain = 0
KWE2 101754Z 10008KT 26/11 A3028 RMK A01 T02550105  RH  039%=      5-min Rain = 0
KWE2 101755Z 10006KT 25/10 A3028 RMK A01 T02540104  RH  039%=      5-min Rain = 0
KWE2 101756Z 09005KT 25/10 A3028 RMK A01 T02510104  RH  040%=      5-min Rain = 0
KWE2 101757Z 09004KT 25/10 A3028 RMK A01 T02500103  RH  039%=      5-min Rain = 0
KWE2 101758Z 10004KT 25/10 A3028 RMK A01 T02500102  RH  039%=      5-min Rain = 0
KWE2 101759Z 10006KT 25/10 A3028 RMK A01 T02510103  RH  039%=      5-min Rain = 0
KWE2 101800Z 10005KT 25/10 A3028 RMK A01 T02530103  RH  039%=      5-min Rain = 0
KWE2 101801Z 13008KT 25/11 A3028 RMK A01 T02530108  RH  040%=      5-min Rain = 0
KWE2 101802Z 13008KT 25/11 A3028 RMK A01 T02540109  RH  040%=      5-min Rain = 0
KWE2 101803Z 13007KT 25/11 A3028 RMK A01 T02540105  RH  039%=      5-min Rain = 0
KWE2 101804Z 14006KT 25/11 A3028 RMK A01 T02520107  RH  040%=      5-min Rain = 0
KWE2 101805Z 12005KT 25/11 A3027 RMK A01 T02520105  RH  039%=      5-min Rain = 0
KWE2 101806Z 12003KT 25/10 A3027 RMK A01 T02520102  RH  039%=      5-min Rain = 0
KWE2 101807Z 15004KT 25/10 A3027 RMK A01 T02520104  RH  039%=      5-min Rain = 0
KWE2 101808Z 14010KT 25/11 A3027 RMK A01 T02520108  RH  040%=      5-min Rain = 0
KWE2 101809Z 13010KT 26/11 A3027 RMK A01 T02550108  RH  040%=      5-min Rain = 0
KWE2 101810Z 14009KT 26/11 A3027 RMK A01 T02570109  RH  040%=      5-min Rain = 0
KWE2 101811Z 15010KT 26/11 A3027 RMK A01 T02570109  RH  039%=      5-min Rain = 0
KWE2 101812Z 14007KT 26/11 A3027 RMK A01 T02570108  RH  039%=      5-min Rain = 0
KWE2 101813Z 15004KT 26/11 A3027 RMK A01 T02570108  RH  039%=      5-min Rain = 0
KWE2 101814Z 14007KT 26/11 A3027 RMK A01 T02570110  RH  040%=      5-min Rain = 0
KWE2 101815Z 14007KT 26/11 A3027 RMK A01 T02560109  RH  040%=      5-min Rain = 0
KWE2 101816Z 13008KT 26/11 A3027 RMK A01 T02550109  RH  040%=      5-min Rain = 0
KWE2 101817Z 10007KT 26/11 A3027 RMK A01 T02560105  RH  039%=      5-min Rain = 0
KWE2 101818Z 08004KT 25/10 A3027 RMK A01 T02540101  RH  038%=      5-min Rain = 0
KWE2 101819Z 09003KT 25/10 A3027 RMK A01 T02520102  RH  039%=      5-min Rain = 0
KWE2 101820Z 12007KT 26/11 A3027 RMK A01 T02550107  RH  039%=      5-min Rain = 0
KWE2 101821Z 12009KT 26/11 A3027 RMK A01 T02570109  RH  039%=      5-min Rain = 0
KWE2 101822Z 13007KT 26/11 A3027 RMK A01 T02580109  RH  039%=      5-min Rain = 0
KWE2 101823Z 15006KT 26/11 A3027 RMK A01 T02580107  RH  039%=      5-min Rain = 0
KWE2 101824Z 17006KT 26/11 A3027 RMK A01 T02570110  RH  040%=      5-min Rain = 0
KWE2 101825Z 15007KT 26/11 A3027 RMK A01 T02570107  RH  039%=      5-min Rain = 0
KWE2 101826Z 13007KT 26/11 A3027 RMK A01 T02560110  RH  040%=      5-min Rain = 0
KWE2 101827Z 14005KT 26/11 A3027 RMK A01 T02560108  RH  039%=      5-min Rain = 0
KWE2 101828Z 12004KT 26/11 A3027 RMK A01 T02580110  RH  039%=      5-min Rain = 0
KWE2 101829Z 14003KT 26/11 A3027 RMK A01 T02610107  RH  038%=      5-min Rain = 0
KWE2 101830Z 17002KT 26/11 A3027 RMK A01 T02610107  RH  038%=      5-min Rain = 0
KWE2 101831Z 14002KT 26/11 A3027 RMK A01 T02610107  RH  038%=      5-min Rain = 0
KWE2 101832Z 13004KT 26/11 A3027 RMK A01 T02610107  RH  038%=      5-min Rain = 0
KWE2 101833Z 14008KT 26/11 A3027 RMK A01 T02610107  RH  038%=      5-min Rain = 0
KWE2 101834Z 15005KT 26/11 A3027 RMK A01 T02600106  RH  038%=      5-min Rain = 0
KWE2 101835Z 14008KT 26/11 A3027 RMK A01 T02590108  RH  039%=      5-min Rain = 0
KWE2 101836Z 13010KT 26/11 A3027 RMK A01 T02610106  RH  038%=      5-min Rain = 0
KWE2 101837Z 15008KT 26/11 A3027 RMK A01 T02630108  RH  038%=      5-min Rain = 0
KWE2 101838Z 15009KT 26/11 A3027 RMK A01 T02630105  RH  037%=      5-min Rain = 0
KWE2 101839Z 15008KT 26/11 A3027 RMK A01 T02620105  RH  037%=      5-min Rain = 0
KWE2 101840Z 14004KT 26/11 A3027 RMK A01 T02600105  RH  038%=      5-min Rain = 0
KWE2 101841Z 12008KT 26/11 A3027 RMK A01 T02590106  RH  038%=      5-min Rain = 0
KWE2 101842Z 12008KT 26/10 A3027 RMK A01 T02590104  RH  038%=      5-min Rain = 0
KWE2 101843Z 14006KT 26/10 A3027 RMK A01 T02570103  RH  038%=      5-min Rain = 0
KWE2 101844Z 15006KT 26/11 A3026 RMK A01 T02570107  RH  039%=      5-min Rain = 0
KWE2 101845Z 12005KT 26/11 A3027 RMK A01 T02590106  RH  038%=      5-min Rain = 0
KWE2 101846Z 11004KT 26/11 A3026 RMK A01 T02580105  RH  038%=      5-min Rain = 0
KWE2 101847Z 13006KT 26/11 A3026 RMK A01 T02570106  RH  039%=      5-min Rain = 0
KWE2 101848Z 13006KT 26/11 A3026 RMK A01 T02570106  RH  039%=      5-min Rain = 0
KWE2 101849Z 10003KT 26/10 A3026 RMK A01 T02570103  RH  038%=      5-min Rain = 0
KWE2 101850Z 12004G13KT 26/10 A3026 RMK A01 T02550104  RH  038%=      5-min Rain = 0
KWE2 101851Z 12008KT 26/11 A3026 RMK A01 T02580112  RH  040%=      5-min Rain = 0
KWE2 101852Z 13010KT 26/11 A3026 RMK A01 T02640112  RH  039%=      5-min Rain = 0
KWE2 101853Z 14008KT 27/11 A3026 RMK A01 T02660113  RH  039%=      5-min Rain = 0
KWE2 101854Z 13007KT 27/11 A3026 RMK A01 T02670110  RH  037%=      5-min Rain = 0
KWE2 101855Z 14005KT 27/11 A3026 RMK A01 T02670109  RH  037%=      5-min Rain = 0
KWE2 101856Z 15007KT 27/11 A3026 RMK A01 T02660110  RH  037%=      5-min Rain = 0
KWE2 101857Z 18006KT 27/11 A3026 RMK A01 T02660110  RH  038%=      5-min Rain = 0
KWE2 101858Z 18007KT 26/11 A3026 RMK A01 T02640109  RH  038%=      5-min Rain = 0
KWE2 101859Z 17007KT 26/11 A3026 RMK A01 T02620110  RH  039%=      5-min Rain = 0
KWE2 101900Z 18005KT 26/11 A3026 RMK A01 T02610107  RH  038%=      5-min Rain = 0
KWE2 101901Z 15003KT 26/11 A3026 RMK A01 T02590106  RH  038%=      5-min Rain = 0
KWE2 101902Z 13003KT 26/11 A3026 RMK A01 T02590106  RH  038%=      5-min Rain = 0
KWE2 101903Z 13004KT 26/11 A3026 RMK A01 T02600106  RH  038%=      5-min Rain = 0
KWE2 101904Z 13007KT 26/11 A3026 RMK A01 T02620109  RH  038%=      5-min Rain = 0
KWE2 101905Z 14009KT 27/11 A3026 RMK A01 T02670106  RH  036%=      5-min Rain = 0
KWE2 101906Z 14007KT 27/10 A3026 RMK A01 T02680103  RH  036%=      5-min Rain = 0
KWE2 101907Z 15008KT 27/10 A3026 RMK A01 T02670104  RH  036%=      5-min Rain = 0
KWE2 101908Z 14005KT 27/10 A3026 RMK A01 T02670102  RH  035%=      5-min Rain = 0
KWE2 101909Z 14006KT 27/11 A3026 RMK A01 T02660105  RH  036%=      5-min Rain = 0
KWE2 101910Z 16008KT 27/11 A3026 RMK A01 T02670107  RH  037%=      5-min Rain = 0
KWE2 101911Z 15005KT 27/10 A3026 RMK A01 T02670104  RH  036%=      5-min Rain = 0
KWE2 101912Z 13006KT 27/10 A3026 RMK A01 T02660102  RH  036%=      5-min Rain = 0
KWE2 101913Z 13009KT 27/10 A3026 RMK A01 T02650102  RH  036%=      5-min Rain = 0
KWE2 101914Z 12008KT 27/10 A3025 RMK A01 T02660099  RH  035%=      5-min Rain = 0
KWE2 101915Z 13008KT 27/10 A3025 RMK A01 T02660103  RH  036%=      5-min Rain = 0
KWE2 101916Z 12006KT 27/10 A3025 RMK A01 T02670099  RH  035%=      5-min Rain = 0
KWE2 101917Z 12005KT 26/10 A3025 RMK A01 T02640097  RH  035%=      5-min Rain = 0
KWE2 101918Z 11002KT 26/09 A3025 RMK A01 T02620093  RH  034%=      5-min Rain = 0
KWE2 101919Z 10003KT 26/09 A3025 RMK A01 T02620094  RH  035%=      5-min Rain = 0
KWE2 101920Z 10002KT 26/10 A3025 RMK A01 T02630096  RH  035%=      5-min Rain = 0
KWE2 101921Z 11003KT 26/10 A3025 RMK A01 T02640098  RH  035%=      5-min Rain = 0
KWE2 101922Z 11006KT 26/10 A3025 RMK A01 T02640100  RH  036%=      5-min Rain = 0
KWE2 101923Z 13007KT 26/10 A3025 RMK A01 T02640103  RH  036%=      5-min Rain = 0
KWE2 101924Z 12008KT 27/10 A3025 RMK A01 T02670103  RH  036%=      5-min Rain = 0
KWE2 101925Z 12007KT 27/10 A3025 RMK A01 T02680100  RH  035%=      5-min Rain = 0
KWE2 101926Z 12005KT 27/10 A3025 RMK A01 T02650098  RH  035%=      5-min Rain = 0
KWE2 101927Z 12002KT 26/10 A3025 RMK A01 T02640096  RH  035%=      5-min Rain = 0
KWE2 101928Z 05001KT 26/10 A3025 RMK A01 T02640096  RH  034%=      5-min Rain = 0
KWE2 101929Z 11004KT 27/10 A3024 RMK A01 T02650099  RH  035%=      5-min Rain = 0
KWE2 101930Z 12008KT 27/10 A3024 RMK A01 T02680103  RH  036%=      5-min Rain = 0
KWE2 101931Z 12007KT 27/10 A3024 RMK A01 T02690104  RH  036%=      5-min Rain = 0
KWE2 101932Z 10009KT 27/11 A3024 RMK A01 T02720107  RH  036%=      5-min Rain = 0
KWE2 101933Z 10009KT 27/10 A3024 RMK A01 T02730102  RH  034%=      5-min Rain = 0
KWE2 101934Z 12009KT 27/10 A3024 RMK A01 T02710103  RH  035%=      5-min Rain = 0
KWE2 101935Z 11008KT 27/10 A3024 RMK A01 T02700102  RH  035%=      5-min Rain = 0
KWE2 101936Z 09006KT 27/09 A3024 RMK A01 T02710093  RH  033%=      5-min Rain = 0
KWE2 101937Z 07004KT 27/09 A3024 RMK A01 T02670093  RH  033%=      5-min Rain = 0
KWE2 101938Z 11005KT 27/10 A3024 RMK A01 T02660096  RH  034%=      5-min Rain = 0
KWE2 101939Z 13006KT 27/10 A3024 RMK A01 T02670098  RH  034%=      5-min Rain = 0
KWE2 101940Z 15004KT 27/09 A3024 RMK A01 T02670091  RH  033%=      5-min Rain = 0
KWE2 101941Z 14007KT 27/10 A3024 RMK A01 T02670097  RH  034%=      5-min Rain = 0
KWE2 101942Z 13006KT 27/10 A3024 RMK A01 T02690101  RH  035%=      5-min Rain = 0
KWE2 101943Z 16007KT 27/10 A3024 RMK A01 T02710103  RH  035%=      5-min Rain = 0
KWE2 101944Z 17004KT 27/10 A3024 RMK A01 T02690102  RH  035%=      5-min Rain = 0
KWE2 101945Z 15004KT 27/10 A3024 RMK A01 T02680103  RH  036%=      5-min Rain = 0
KWE2 101946Z 13002KT 27/10 A3024 RMK A01 T02690103  RH  035%=      5-min Rain = 0
KWE2 101947Z 09003KT 27/10 A3024 RMK A01 T02720103  RH  035%=      5-min Rain = 0
KWE2 101948Z 14003KT 27/10 A3024 RMK A01 T02710101  RH  034%=      5-min Rain = 0
KWE2 101949Z 13006KT 27/10 A3024 RMK A01 T02710103  RH  035%=      5-min Rain = 0
KWE2 101950Z 13007KT 27/10 A3024 RMK A01 T02720102  RH  034%=      5-min Rain = 0
KWE2 101951Z 13008KT 27/10 A3024 RMK A01 T02730100  RH  034%=      5-min Rain = 0
KWE2 101952Z 13010KT 27/10 A3024 RMK A01 T02730099  RH  033%=      5-min Rain = 0
KWE2 101953Z 13008KT 27/10 A3024 RMK A01 T02730099  RH  034%=      5-min Rain = 0
KWE2 101954Z 12007KT 27/10 A3024 RMK A01 T02720099  RH  034%=      5-min Rain = 0
KWE2 101955Z 13007KT 27/10 A3024 RMK A01 T02730097  RH  033%=      5-min Rain = 0
KWE2 101956Z 12008KT 27/10 A3024 RMK A01 T02720095  RH  033%=      5-min Rain = 0
KWE2 101957Z 12006KT 27/09 A3024 RMK A01 T02690093  RH  033%=      5-min Rain = 0
KWE2 101958Z 10005KT 27/09 A3024 RMK A01 T02690092  RH  033%=      5-min Rain = 0
KWE2 101959Z 10005KT 27/09 A3024 RMK A01 T02700092  RH  033%=      5-min Rain = 0
KWE2 102000Z 11008KT 27/09 A3024 RMK A01 T02710094  RH  033%=      5-min Rain = 0
KWE2 102001Z 12004KT 27/09 A3024 RMK A01 T02720092  RH  032%=      5-min Rain = 0
KWE2 102002Z 13006KT 27/09 A3024 RMK A01 T02710094  RH  033%=      5-min Rain = 0
KWE2 102003Z 14004KT 27/09 A3024 RMK A01 T02730094  RH  032%=      5-min Rain = 0
KWE2 102004Z 15005KT 27/10 A3024 RMK A01 T02730095  RH  033%=      5-min Rain = 0
KWE2 102005Z 14003KT 27/10 A3024 RMK A01 T02730097  RH  033%=      5-min Rain = 0
KWE2 102006Z 14005KT 27/10 A3024 RMK A01 T02740095  RH  032%=      5-min Rain = 0
KWE2 102007Z 15005KT 27/10 A3024 RMK A01 T02740096  RH  033%=      5-min Rain = 0
KWE2 102008Z 15002KT 27/09 A3024 RMK A01 T02730093  RH  032%=      5-min Rain = 0
KWE2 102009Z 15002KT 27/09 A3024 RMK A01 T02720093  RH  032%=      5-min Rain = 0
KWE2 102010Z 13006KT 27/10 A3024 RMK A01 T02730096  RH  033%=      5-min Rain = 0
KWE2 102011Z 12005KT 27/09 A3024 RMK A01 T02740093  RH  032%=      5-min Rain = 0
KWE2 102012Z 14003KT 27/10 A3024 RMK A01 T02730096  RH  033%=      5-min Rain = 0
KWE2 102013Z 13001KT 27/10 A3023 RMK A01 T02720096  RH  033%=      5-min Rain = 0
KWE2 102014Z 07003KT 27/10 A3023 RMK A01 T02720097  RH  033%=      5-min Rain = 0
KWE2 102015Z 06002KT 27/10 A3023 RMK A01 T02730098  RH  033%=      5-min Rain = 0
KWE2 102016Z 06003KT 28/10 A3023 RMK A01 T02750097  RH  033%=      5-min Rain = 0
KWE2 102017Z 08001KT 27/10 A3023 RMK A01 T02730098  RH  033%=      5-min Rain = 0
KWE2 102018Z 10005KT 27/10 A3023 RMK A01 T02740097  RH  033%=      5-min Rain = 0
KWE2 102019Z 10006KT 27/10 A3023 RMK A01 T02730095  RH  033%=      5-min Rain = 0
KWE2 102020Z 11005KT 27/09 A3023 RMK A01 T02720091  RH  032%=      5-min Rain = 0
KWE2 102021Z 11007KT 27/09 A3023 RMK A01 T02710090  RH  032%=      5-min Rain = 0
KWE2 102022Z 11008KT 27/09 A3023 RMK A01 T02720092  RH  032%=      5-min Rain = 0
KWE2 102023Z 15005KT 27/09 A3023 RMK A01 T02730092  RH  032%=      5-min Rain = 0
KWE2 102024Z 17006KT 27/09 A3023 RMK A01 T02730092  RH  032%=      5-min Rain = 0
KWE2 102025Z 16003KT 27/09 A3023 RMK A01 T02730089  RH  031%=      5-min Rain = 0
KWE2 102026Z 17004KT 27/09 A3023 RMK A01 T02720092  RH  032%=      5-min Rain = 0
KWE2 102027Z 14006KT 27/10 A3023 RMK A01 T02730096  RH  033%=      5-min Rain = 0
KWE2 102028Z 11007KT 28/10 A3023 RMK A01 T02750096  RH  033%=      5-min Rain = 0
KWE2 102029Z 11004KT 28/09 A3023 RMK A01 T02750094  RH  032%=      5-min Rain = 0
KWE2 102030Z 09003KT 27/09 A3023 RMK A01 T02740092  RH  032%=      5-min Rain = 0
KWE2 102031Z 08001KT 27/09 A3023 RMK A01 T02740094  RH  032%=      5-min Rain = 0
KWE2 102032Z 09003KT 27/09 A3023 RMK A01 T02740094  RH  032%=      5-min Rain = 0
KWE2 102033Z 16006KT 28/10 A3023 RMK A01 T02770095  RH  032%=      5-min Rain = 0
KWE2 102034Z 20006KT 28/09 A3023 RMK A01 T02770093  RH  032%=      5-min Rain = 0
KWE2 102035Z 23002KT 27/09 A3023 RMK A01 T02740092  RH  032%=      5-min Rain = 0
KWE2 102036Z 20002KT 27/10 A3022 RMK A01 T02740095  RH  032%=      5-min Rain = 0
KWE2 102037Z 16006KT 28/09 A3022 RMK A01 T02760094  RH  032%=      5-min Rain = 0
KWE2 102038Z 14005KT 28/10 A3022 RMK A01 T02770098  RH  032%=      5-min Rain = 0
KWE2 102039Z 09007KT 28/10 A3022 RMK A01 T02790097  RH  032%=      5-min Rain = 0
KWE2 102040Z 09004KT 28/09 A3022 RMK A01 T02790094  RH  031%=      5-min Rain = 0
KWE2 102041Z 13010KT 28/10 A3022 RMK A01 T02770098  RH  033%=      5-min Rain = 0
KWE2 102042Z 15006KT 28/10 A3022 RMK A01 T02780098  RH  032%=      5-min Rain = 0
KWE2 102043Z 09003KT 28/10 A3022 RMK A01 T02800096  RH  032%=      5-min Rain = 0
KWE2 102044Z 11002KT 28/09 A3022 RMK A01 T02790094  RH  031%=      5-min Rain = 0
KWE2 102045Z 15005KT 28/10 A3022 RMK A01 T02780097  RH  032%=      5-min Rain = 0
KWE2 102046Z 15005KT 28/10 A3022 RMK A01 T02780099  RH  033%=      5-min Rain = 0
KWE2 102047Z 13006KT 28/10 A3022 RMK A01 T02780097  RH  032%=      5-min Rain = 0
KWE2 102048Z 12002KT 28/10 A3022 RMK A01 T02750096  RH  032%=      5-min Rain = 0
KWE2 102049Z 00003KT 27/10 A3022 RMK A01 T02730096  RH  033%=      5-min Rain = 0
KWE2 102050Z 35002KT 27/10 A3022 RMK A01 T02720095  RH  033%=      5-min Rain = 0
KWE2 102051Z 32003KT 27/10 A3022 RMK A01 T02720096  RH  033%=      5-min Rain = 0
KWE2 102052Z 31003KT 27/10 A3022 RMK A01 T02720098  RH  034%=      5-min Rain = 0
KWE2 102053Z 00001KT 27/10 A3022 RMK A01 T02740099  RH  033%=      5-min Rain = 0
KWE2 102054Z 03001KT 28/10 A3022 RMK A01 T02770100  RH  033%=      5-min Rain = 0
KWE2 102055Z 08004KT 28/10 A3022 RMK A01 T02790100  RH  033%=      5-min Rain = 0
KWE2 102056Z 09007KT 28/10 A3022 RMK A01 T02790100  RH  033%=      5-min Rain = 0
KWE2 102057Z 09007KT 28/10 A3022 RMK A01 T02790101  RH  033%=      5-min Rain = 0
KWE2 102058Z 08006KT 28/10 A3022 RMK A01 T02790100  RH  033%=      5-min Rain = 0
KWE2 102059Z 09002G7KT 28/10 A3022 RMK A01 T02760098  RH  033%=      5-min Rain = 0
KWE2 102100Z 10005KT 28/10 A3022 RMK A01 T02750098  RH  033%=      5-min Rain = 0
KWE2 102101Z 09003KT 28/10 A3022 RMK A01 T02760098  RH  033%=      5-min Rain = 0
KWE2 102102Z 07003KT 28/10 A3021 RMK A01 T02760098  RH  033%=      5-min Rain = 0
KWE2 102103Z 07002KT 28/10 A3021 RMK A01 T02760099  RH  033%=      5-min Rain = 0
KWE2 102104Z 07003KT 28/10 A3021 RMK A01 T02780100  RH  033%=      5-min Rain = 0
KWE2 102105Z 12005KT 28/10 A3021 RMK A01 T02790099  RH  032%=      5-min Rain = 0
KWE2 102106Z 14006KT 28/10 A3021 RMK A01 T02800101  RH  033%=      5-min Rain = 0
KWE2 102107Z 15008KT 28/10 A3021 RMK A01 T02820102  RH  033%=      5-min Rain = 0
KWE2 102108Z 15008KT 28/10 A3021 RMK A01 T02820101  RH  032%=      5-min Rain = 0
KWE2 102109Z 15004KT 28/10 A3021 RMK A01 T02800099  RH  032%=      5-min Rain = 0
KWE2 102110Z 19001KT 28/10 A3021 RMK A01 T02790098  RH  032%=      5-min Rain = 0
KWE2 102111Z 16002KT 28/10 A3021 RMK A01 T02790099  RH  032%=      5-min Rain = 0
KWE2 102112Z 15006KT 28/10 A3021 RMK A01 T02800101  RH  033%=      5-min Rain = 0
KWE2 102113Z 14009KT 28/10 A3021 RMK A01 T02810102  RH  033%=      5-min Rain = 0
KWE2 102114Z 14006KT 28/10 A3021 RMK A01 T02820101  RH  032%=      5-min Rain = 0
KWE2 102115Z 14007KT 28/10 A3021 RMK A01 T02820101  RH  032%=      5-min Rain = 0
KWE2 102116Z 13005KT 28/10 A3021 RMK A01 T02820103  RH  033%=      5-min Rain = 0
KWE2 102117Z 15010KT 28/11 A3021 RMK A01 T02830105  RH  033%=      5-min Rain = 0
KWE2 102118Z 16009KT 28/10 A3021 RMK A01 T02840102  RH  032%=      5-min Rain = 0
KWE2 102119Z 17007KT 28/10 A3021 RMK A01 T02810102  RH  033%=      5-min Rain = 0
KWE2 102120Z 17005KT 28/10 A3021 RMK A01 T02800100  RH  032%=      5-min Rain = 0
KWE2 102121Z 14003KT 28/10 A3021 RMK A01 T02790098  RH  032%=      5-min Rain = 0
KWE2 102122Z 11005KT 28/10 A3021 RMK A01 T02790099  RH  032%=      5-min Rain = 0
KWE2 102123Z 14003KT 28/10 A3021 RMK A01 T02790097  RH  032%=      5-min Rain = 0
KWE2 102124Z 12002KT 28/10 A3021 RMK A01 T02790097  RH  032%=      5-min Rain = 0
KWE2 102125Z 03001KT 28/10 A3021 RMK A01 T02790097  RH  032%=      5-min Rain = 0
KWE2 102126Z 31001KT 28/10 A3021 RMK A01 T02790098  RH  032%=      5-min Rain = 0
KWE2 102127Z 12001KT 28/10 A3021 RMK A01 T02800099  RH  032%=      5-min Rain = 0
KWE2 102128Z 10006KT 28/10 A3021 RMK A01 T02830100  RH  032%=      5-min Rain = 0
KWE2 102129Z 14006KT 28/10 A3021 RMK A01 T02840101  RH  032%=      5-min Rain = 0
KWE2 102130Z 11009KT 29/10 A3021 RMK A01 T02860104  RH  032%=      5-min Rain = 0
KWE2 102131Z 12009KT 29/10 A3021 RMK A01 T02870100  RH  031%=      5-min Rain = 0
KWE2 102132Z 12006KT 29/10 A3021 RMK A01 T02860099  RH  031%=      5-min Rain = 0
KWE2 102133Z 12009KT 28/10 A3021 RMK A01 T02830101  RH  032%=      5-min Rain = 0
KWE2 102134Z 10006KT 28/10 A3021 RMK A01 T02830098  RH  031%=      5-min Rain = 0
KWE2 102135Z 10005KT 28/10 A3021 RMK A01 T02810098  RH  032%=      5-min Rain = 0
KWE2 102136Z 09005KT 28/10 A3021 RMK A01 T02800097  RH  032%=      5-min Rain = 0
KWE2 102137Z 09004KT 28/10 A3021 RMK A01 T02790097  RH  032%=      5-min Rain = 0
KWE2 102138Z 12008KT 28/10 A302 RMK A01 T02790097  RH  032%=      5-min Rain = 0
KWE2 102139Z 11008KT 28/10 A302 RMK A01 T02830102  RH  032%=      5-min Rain = 0
KWE2 102140Z 10010KT 29/10 A302 RMK A01 T02860097  RH  031%=      5-min Rain = 0
KWE2 102141Z 11007KT 28/09 A3021 RMK A01 T02830093  RH  030%=      5-min Rain = 0
KWE2 102142Z 11004KT 28/09 A3021 RMK A01 T02810093  RH  031%=      5-min Rain = 0
KWE2 102143Z 09004KT 28/09 A3021 RMK A01 T02800094  RH  031%=      5-min Rain = 0
KWE2 102144Z 11003KT 28/09 A302 RMK A01 T02800094  RH  031%=      5-min Rain = 0
KWE2 102145Z 16004KT 28/10 A302 RMK A01 T02800095  RH  031%=      5-min Rain = 0
KWE2 102146Z 17002KT 28/10 A302 RMK A01 T02810095  RH  031%=      5-min Rain = 0
KWE2 102147Z 18001KT 28/10 A302 RMK A01 T02800096  RH  031%=      5-min Rain = 0
KWE2 102148Z 06004G10KT 28/10 A302 RMK A01 T02810097  RH  032%=      5-min Rain = 0
KWE2 102149Z 09007KT 28/10 A302 RMK A01 T02830098  RH  031%=      5-min Rain = 0
KWE2 102150Z 09005KT 28/10 A302 RMK A01 T02840098  RH  031%=      5-min Rain = 0
KWE2 102151Z 09005KT 28/10 A302 RMK A01 T02840097  RH  031%=      5-min Rain = 0
KWE2 102152Z 07003KT 28/10 A302 RMK A01 T02830096  RH  031%=      5-min Rain = 0
KWE2 102153Z 09001KT 28/10 A302 RMK A01 T02800095  RH  031%=      5-min Rain = 0
KWE2 102154Z 13003KT 28/10 A302 RMK A01 T02810097  RH  032%=      5-min Rain = 0
KWE2 102155Z 14006KT 28/10 A302 RMK A01 T02820098  RH  032%=      5-min Rain = 0
KWE2 102156Z 16007KT 28/10 A302 RMK A01 T02830097  RH  031%=      5-min Rain = 0
KWE2 102157Z 17006KT 28/10 A302 RMK A01 T02830098  RH  031%=      5-min Rain = 0
KWE2 102158Z 18005KT 28/10 A302 RMK A01 T02830097  RH  031%=      5-min Rain = 0
KWE2 102159Z 13006KT 28/10 A302 RMK A01 T02820098  RH  032%=      5-min Rain = 0
KWE2 102200Z 12008KT 28/10 A302 RMK A01 T02830098  RH  031%=      5-min Rain = 0
KWE2 102201Z 12009KT 29/10 A302 RMK A01 T02850098  RH  031%=      5-min Rain = 0
KWE2 102202Z 12009KT 29/10 A302 RMK A01 T02850099  RH  031%=      5-min Rain = 0
KWE2 102203Z 13008KT 29/10 A302 RMK A01 T02850100  RH  032%=      5-min Rain = 0
KWE2 102204Z 13007KT 29/10 A302 RMK A01 T02850100  RH  032%=      5-min Rain = 0
KWE2 102205Z 11006KT 28/10 A302 RMK A01 T02840099  RH  031%=      5-min Rain = 0
KWE2 102206Z 10006KT 28/10 A302 RMK A01 T02830099  RH  032%=      5-min Rain = 0
KWE2 102207Z 11005KT 28/10 A302 RMK A01 T02830096  RH  031%=      5-min Rain = 0
KWE2 102208Z 09003KT 28/10 A302 RMK A01 T02810096  RH  031%=      5-min Rain = 0
KWE2 102209Z 09003KT 28/10 A302 RMK A01 T02810097  RH  032%=      5-min Rain = 0
KWE2 102210Z 12003KT 28/10 A302 RMK A01 T02820098  RH  032%=      5-min Rain = 0
KWE2 102211Z 15004KT 28/10 A302 RMK A01 T02840100  RH  032%=      5-min Rain = 0
KWE2 102212Z 14005KT 29/10 A302 RMK A01 T02860102  RH  032%=      5-min Rain = 0
KWE2 102213Z 12007KT 29/10 A302 RMK A01 T02880102  RH  031%=      5-min Rain = 0
KWE2 102214Z 12007KT 29/10 A302 RMK A01 T02880103  RH  032%=      5-min Rain = 0
KWE2 102215Z 15007KT 29/10 A302 RMK A01 T02880103  RH  032%=      5-min Rain = 0
KWE2 102216Z 14007KT 29/10 A302 RMK A01 T02880101  RH  031%=      5-min Rain = 0
KWE2 102217Z 15007KT 29/10 A302 RMK A01 T02880102  RH  031%=      5-min Rain = 0
KWE2 102218Z 15008KT 29/10 A302 RMK A01 T02880101  RH  031%=      5-min Rain = 0
KWE2 102219Z 15006KT 29/10 A302 RMK A01 T02860097  RH  031%=      5-min Rain = 0
KWE2 102220Z 14004KT 28/10 A302 RMK A01 T02840097  RH  031%=      5-min Rain = 0
KWE2 102221Z 14002KT 28/10 A302 RMK A01 T02840096  RH  031%=      5-min Rain = 0
KWE2 102222Z 15003KT 28/10 A302 RMK A01 T02840096  RH  031%=      5-min Rain = 0
KWE2 102223Z 12005KT 28/10 A302 RMK A01 T02840098  RH  031%=      5-min Rain = 0
KWE2 102224Z 15009KT 29/10 A302 RMK A01 T02850099  RH  031%=      5-min Rain = 0
KWE2 102225Z 13009KT 29/10 A302 RMK A01 T02850103  RH  032%=      5-min Rain = 0
KWE2 102226Z 14007KT 29/10 A302 RMK A01 T02860098  RH  031%=      5-min Rain = 0
KWE2 102227Z 13007KT 29/10 A302 RMK A01 T02860100  RH  031%=      5-min Rain = 0
KWE2 102228Z 13006KT 29/10 A302 RMK A01 T02860099  RH  031%=      5-min Rain = 0
KWE2 102229Z 11006KT 29/10 A302 RMK A01 T02850099  RH  031%=      5-min Rain = 0
KWE2 102230Z 11005KT 28/10 A302 RMK A01 T02840098  RH  031%=      5-min Rain = 0
KWE2 102231Z 10003KT 29/10 A302 RMK A01 T02850097  RH  031%=      5-min Rain = 0
KWE2 102232Z 12002KT 28/10 A302 RMK A01 T02840096  RH  031%=      5-min Rain = 0
KWE2 102233Z 11001KT 28/10 A302 RMK A01 T02840096  RH  031%=      5-min Rain = 0
KWE2 102234Z 10004KT 29/10 A302 RMK A01 T02850096  RH  031%=      5-min Rain = 0
KWE2 102235Z 09003KT 29/10 A302 RMK A01 T02850097  RH  031%=      5-min Rain = 0
KWE2 102236Z 11004KT 28/10 A302 RMK A01 T02840097  RH  031%=      5-min Rain = 0
KWE2 102237Z 13004KT 28/10 A302 RMK A01 T02840097  RH  031%=      5-min Rain = 0
KWE2 102238Z 16006KT 29/10 A302 RMK A01 T02850101  RH  032%=      5-min Rain = 0
KWE2 102239Z 15006KT 29/10 A302 RMK A01 T02860099  RH  031%=      5-min Rain = 0
KWE2 102240Z 16005KT 29/10 A302 RMK A01 T02850100  RH  031%=      5-min Rain = 0
KWE2 102241Z 14007KT 29/10 A302 RMK A01 T02850102  RH  032%=      5-min Rain = 0
KWE2 102242Z 15007KT 29/10 A302 RMK A01 T02850099  RH  031%=      5-min Rain = 0
KWE2 102243Z 17005KT 28/10 A302 RMK A01 T02840096  RH  031%=      5-min Rain = 0
KWE2 102244Z 18007KT 28/10 A302 RMK A01 T02830100  RH  032%=      5-min Rain = 0
KWE2 102245Z 18007KT 28/10 A302 RMK A01 T02830101  RH  032%=      5-min Rain = 0
KWE2 102246Z 16008KT 28/10 A302 RMK A01 T02830100  RH  032%=      5-min Rain = 0
KWE2 102247Z 15006KT 28/10 A302 RMK A01 T02820097  RH  031%=      5-min Rain = 0
KWE2 102248Z 16004G9KT 28/10 A302 RMK A01 T02820097  RH  031%=      5-min Rain = 0
KWE2 102249Z 25003KT 28/10 A302 RMK A01 T02810095  RH  031%=      5-min Rain = 0
KWE2 102250Z 24003KT 28/10 A302 RMK A01 T02810095  RH  031%=      5-min Rain = 0
KWE2 102251Z 18002KT 28/10 A302 RMK A01 T02810096  RH  032%=      5-min Rain = 0
KWE2 102252Z 17003KT 28/10 A302 RMK A01 T02830096  RH  031%=      5-min Rain = 0
KWE2 102253Z 13003KT 28/10 A302 RMK A01 T02840097  RH  031%=      5-min Rain = 0
KWE2 102254Z 16003KT 29/10 A302 RMK A01 T02850097  RH  031%=      5-min Rain = 0
KWE2 102255Z 12007KT 29/10 A302 RMK A01 T02860099  RH  031%=      5-min Rain = 0
KWE2 102256Z 12006KT 29/10 A302 RMK A01 T02860095  RH  030%=      5-min Rain = 0
KWE2 102257Z 09004KT 29/10 A302 RMK A01 T02850095  RH  030%=      5-min Rain = 0
KWE2 102258Z 07002KT 29/09 A302 RMK A01 T02850094  RH  030%=      5-min Rain = 0
KWE2 102259Z 09006KT 29/09 A302 RMK A01 T02850094  RH  030%=      5-min Rain = 0
KWE2 102300Z 12008KT 29/10 A302 RMK A01 T02860097  RH  031%=      5-min Rain = 0
KWE2 102301Z 11007KT 29/10 A302 RMK A01 T02850095  RH  030%=      5-min Rain = 0
KWE2 102302Z 10007KT 28/10 A302 RMK A01 T02840095  RH  031%=      5-min Rain = 0
KWE2 102303Z 14006KT 28/10 A302 RMK A01 T02840097  RH  031%=      5-min Rain = 0
KWE2 102304Z 15004KT 29/10 A302 RMK A01 T02850095  RH  031%=      5-min Rain = 0
KWE2 102305Z 15003KT 28/09 A302 RMK A01 T02840094  RH  030%=      5-min Rain = 0
KWE2 102306Z 14003KT 28/10 A302 RMK A01 T02840095  RH  031%=      5-min Rain = 0
KWE2 102307Z 15003KT 28/10 A302 RMK A01 T02840096  RH  031%=      5-min Rain = 0
KWE2 102308Z 14007KT 29/10 A302 RMK A01 T02850099  RH  031%=      5-min Rain = 0
KWE2 102309Z 14008KT 29/10 A302 RMK A01 T02860098  RH  031%=      5-min Rain = 0
KWE2 102310Z 14007KT 29/10 A302 RMK A01 T02860096  RH  030%=      5-min Rain = 0
KWE2 102311Z 14006KT 29/10 A302 RMK A01 T02870096  RH  030%=      5-min Rain = 0
KWE2 102312Z 13003KT 29/10 A302 RMK A01 T02870096  RH  030%=      5-min Rain = 0
KWE2 102313Z 13003KT 29/10 A302 RMK A01 T02870098  RH  031%=      5-min Rain = 0
KWE2 102314Z 13004KT 29/10 A302 RMK A01 T02880095  RH  030%=      5-min Rain = 0
KWE2 102315Z 11003KT 29/09 A302 RMK A01 T02880092  RH  029%=      5-min Rain = 0
KWE2 102316Z 12004KT 29/09 A302 RMK A01 T02880094  RH  030%=      5-min Rain = 0
KWE2 102317Z 13003KT 29/10 A302 RMK A01 T02870095  RH  030%=      5-min Rain = 0
KWE2 102318Z 14002KT 29/09 A302 RMK A01 T02870094  RH  030%=      5-min Rain = 0
KWE2 102319Z 13005KT 29/10 A302 RMK A01 T02870096  RH  030%=      5-min Rain = 0
KWE2 102320Z 15006KT 29/10 A302 RMK A01 T02880096  RH  030%=      5-min Rain = 0
KWE2 102321Z 15008KT 29/10 A302 RMK A01 T02870099  RH  031%=      5-min Rain = 0
KWE2 102322Z 14005KT 29/10 A302 RMK A01 T02850098  RH  031%=      5-min Rain = 0
KWE2 102323Z 13005KT 29/10 A302 RMK A01 T02850097  RH  031%=      5-min Rain = 0
KWE2 102324Z 15003KT 29/10 A302 RMK A01 T02850099  RH  031%=      5-min Rain = 0
KWE2 102325Z 13004KT 29/10 A302 RMK A01 T02860101  RH  032%=      5-min Rain = 0
KWE2 102326Z 16009KT 29/10 A302 RMK A01 T02860098  RH  031%=      5-min Rain = 0
KWE2 102327Z 15007KT 29/10 A302 RMK A01 T02860098  RH  031%=      5-min Rain = 0
KWE2 102328Z 13007KT 28/10 A302 RMK A01 T02840098  RH  031%=      5-min Rain = 0
KWE2 102329Z 14006KT 28/10 A302 RMK A01 T02840097  RH  031%=      5-min Rain = 0
KWE2 102330Z 17005KT 28/10 A302 RMK A01 T02840095  RH  031%=      5-min Rain = 0
KWE2 102331Z 15005KT 28/09 A302 RMK A01 T02840094  RH  031%=      5-min Rain = 0
KWE2 102332Z 14006KT 28/10 A302 RMK A01 T02840097  RH  031%=      5-min Rain = 0
KWE2 102333Z 14005KT 28/10 A302 RMK A01 T02830099  RH  032%=      5-min Rain = 0
KWE2 102334Z 12006KT 28/10 A302 RMK A01 T02830101  RH  032%=      5-min Rain = 0
KWE2 102335Z 10006KT 28/10 A302 RMK A01 T02840095  RH  031%=      5-min Rain = 0
KWE2 102336Z 10007KT 29/09 A302 RMK A01 T02850092  RH  030%=      5-min Rain = 0
KWE2 102337Z 10006KT 28/09 A302 RMK A01 T02840093  RH  030%=      5-min Rain = 0
KWE2 102338Z 12008KT 28/09 A302 RMK A01 T02840094  RH  031%=      5-min Rain = 0
KWE2 102339Z 12007KT 28/10 A302 RMK A01 T02830096  RH  031%=      5-min Rain = 0
KWE2 102340Z 13007KT 28/10 A302 RMK A01 T02820099  RH  032%=      5-min Rain = 0
KWE2 102341Z 12007KT 28/10 A302 RMK A01 T02820100  RH  032%=      5-min Rain = 0
KWE2 102342Z 12006KT 28/10 A302 RMK A01 T02820096  RH  031%=      5-min Rain = 0
KWE2 102343Z 13009KT 28/10 A302 RMK A01 T02820099  RH  032%=      5-min Rain = 0
KWE2 102344Z 12007KT 28/10 A302 RMK A01 T02820097  RH  031%=      5-min Rain = 0
KWE2 102345Z 13008KT 28/10 A302 RMK A01 T02820097  RH  031%=      5-min Rain = 0
KWE2 102346Z 13007KT 28/10 A302 RMK A01 T02820098  RH  032%=      5-min Rain = 0
KWE2 102347Z 12007KT 28/10 A302 RMK A01 T02810097  RH  031%=      5-min Rain = 0
KWE2 102348Z 13006KT 28/10 A302 RMK A01 T02810097  RH  032%=      5-min Rain = 0
KWE2 102349Z 12005KT 28/09 A302 RMK A01 T02810094  RH  031%=      5-min Rain = 0
KWE2 102350Z 12004KT 28/09 A302 RMK A01 T02810093  RH  031%=      5-min Rain = 0
KWE2 102351Z 11004KT 28/09 A302 RMK A01 T02810094  RH  031%=      5-min Rain = 0
KWE2 102352Z 12004KT 28/10 A302 RMK A01 T02810095  RH  031%=      5-min Rain = 0
KWE2 102353Z 13003KT 28/09 A302 RMK A01 T02800094  RH  031%=      5-min Rain = 0
KWE2 102354Z 14006KT 28/10 A302 RMK A01 T02800100  RH  032%=      5-min Rain = 0
KWE2 102355Z 13007KT 28/10 A302 RMK A01 T02800102  RH  033%=      5-min Rain = 0
KWE2 102356Z 14006KT 28/10 A302 RMK A01 T02800100  RH  032%=      5-min Rain = 0
KWE2 102357Z 14007KT 28/10 A302 RMK A01 T02800100  RH  032%=      5-min Rain = 0
KWE2 102358Z 14007KT 28/10 A302 RMK A01 T02800100  RH  032%=      5-min Rain = 0
KWE2 102359Z 14007KT 28/10 A302 RMK A01 T02790099  RH  032%=      5-min Rain = 0
KWE2 110000Z 14007KT 28/10 A302 RMK A01 T02790098  RH  032%=      5-min Rain = 0
KWE2 110001Z 14007KT 28/10 A302 RMK A01 T02780099  RH  032%=      5-min Rain = 0
KWE2 110002Z 14007KT 28/10 A302 RMK A01 T02780098  RH  032%=      5-min Rain = 0
KWE2 110003Z 14006KT 28/10 A302 RMK A01 T02780098  RH  032%=      5-min Rain = 0
KWE2 110004Z 14008KT 28/10 A302 RMK A01 T02770096  RH  032%=      5-min Rain = 0
KWE2 110005Z 14006KT 28/10 A302 RMK A01 T02770097  RH  032%=      5-min Rain = 0
KWE2 110006Z 14006KT 28/09 A3019 RMK A01 T02760094  RH  032%=      5-min Rain = 0
KWE2 110007Z 13006KT 28/09 A3019 RMK A01 T02760091  RH  031%=      5-min Rain = 0
KWE2 110008Z 14007KT 28/09 A3019 RMK A01 T02760093  RH  032%=      5-min Rain = 0
KWE2 110009Z 14007KT 28/09 A3019 RMK A01 T02760094  RH  032%=      5-min Rain = 0
KWE2 110010Z 14006KT 28/09 A3019 RMK A01 T02760094  RH  032%=      5-min Rain = 0
KWE2 110011Z 14007KT 28/10 A3019 RMK A01 T02760095  RH  032%=      5-min Rain = 0
KWE2 110012Z 13007KT 28/10 A3019 RMK A01 T02750095  RH  032%=      5-min Rain = 0
KWE2 110013Z 14008KT 27/09 A3019 RMK A01 T02740093  RH  032%=      5-min Rain = 0
KWE2 110014Z 14007KT 27/09 A3019 RMK A01 T02740093  RH  032%=      5-min Rain = 0
KWE2 110015Z 13006KT 27/10 A3019 RMK A01 T02730095  RH  033%=      5-min Rain = 0
KWE2 110016Z 14006KT 27/10 A3019 RMK A01 T02730097  RH  033%=      5-min Rain = 0
KWE2 110017Z 14006KT 27/10 A3019 RMK A01 T02720099  RH  034%=      5-min Rain = 0
KWE2 110018Z 14008KT 27/10 A3019 RMK A01 T02720099  RH  034%=      5-min Rain = 0
KWE2 110019Z 14007KT 27/10 A3019 RMK A01 T02720096  RH  033%=      5-min Rain = 0
KWE2 110020Z 14006KT 27/10 A3019 RMK A01 T02710099  RH  034%=      5-min Rain = 0
KWE2 110021Z 14006KT 27/10 A3019 RMK A01 T02710101  RH  034%=      5-min Rain = 0
KWE2 110022Z 14006KT 27/10 A3019 RMK A01 T02700101  RH  035%=      5-min Rain = 0
KWE2 110023Z 14006KT 27/10 A3019 RMK A01 T02700102  RH  035%=      5-min Rain = 0
KWE2 110024Z 14006KT 27/10 A3019 RMK A01 T02690102  RH  035%=      5-min Rain = 0
KWE2 110025Z 14007KT 27/10 A3019 RMK A01 T02680102  RH  035%=      5-min Rain = 0
KWE2 110026Z 14007KT 27/10 A3019 RMK A01 T02680102  RH  035%=      5-min Rain = 0
KWE2 110027Z 14007KT 27/10 A3019 RMK A01 T02670101  RH  035%=      5-min Rain = 0
KWE2 110028Z 14006KT 27/10 A3019 RMK A01 T02660102  RH  036%=      5-min Rain = 0
KWE2 110029Z 14006KT 27/10 A3019 RMK A01 T02650102  RH  036%=      5-min Rain = 0
KWE2 110030Z 13006KT 27/10 A3019 RMK A01 T02650103  RH  036%=      5-min Rain = 0
KWE2 110031Z 14006KT 26/10 A3019 RMK A01 T02640103  RH  036%=      5-min Rain = 0
KWE2 110032Z 14006KT 26/10 A3019 RMK A01 T02630104  RH  037%=      5-min Rain = 0
KWE2 110033Z 14006KT 26/11 A3019 RMK A01 T02630105  RH  037%=      5-min Rain = 0
KWE2 110034Z 14006KT 26/11 A3019 RMK A01 T02620106  RH  037%=      5-min Rain = 0
KWE2 110035Z 14006KT 26/11 A3019 RMK A01 T02610105  RH  038%=      5-min Rain = 0
KWE2 110036Z 14006KT 26/11 A3019 RMK A01 T02600105  RH  038%=      5-min Rain = 0
KWE2 110037Z 14006KT 26/11 A3019 RMK A01 T02590105  RH  038%=      5-min Rain = 0
KWE2 110038Z 14006KT 26/11 A3019 RMK A01 T02590106  RH  038%=      5-min Rain = 0
KWE2 110039Z 14006KT 26/11 A3019 RMK A01 T02570106  RH  039%=      5-min Rain = 0
KWE2 110040Z 13006KT 26/11 A3019 RMK A01 T02560106  RH  039%=      5-min Rain = 0
KWE2 110041Z 14006KT 26/11 A3019 RMK A01 T02550106  RH  039%=      5-min Rain = 0
KWE2 110042Z 14006KT 25/11 A3019 RMK A01 T02540106  RH  039%=      5-min Rain = 0
KWE2 110043Z 14006KT 25/11 A3019 RMK A01 T02530107  RH  040%=      5-min Rain = 0
KWE2 110044Z 14006KT 25/11 A3019 RMK A01 T02520107  RH  040%=      5-min Rain = 0
KWE2 110045Z 14006KT 25/11 A3019 RMK A01 T02510107  RH  040%=      5-min Rain = 0
KWE2 110046Z 14006KT 25/11 A3019 RMK A01 T02500108  RH  041%=      5-min Rain = 0
KWE2 110047Z 14006KT 25/11 A3019 RMK A01 T02490108  RH  041%=      5-min Rain = 0
KWE2 110048Z 14005KT 25/11 A3019 RMK A01 T02480108  RH  041%=      5-min Rain = 0
KWE2 110049Z 14006KT 25/11 A3019 RMK A01 T02470108  RH  042%=      5-min Rain = 0
KWE2 110050Z 14006KT 25/11 A3019 RMK A01 T02460108  RH  042%=      5-min Rain = 0
KWE2 110051Z 14005KT 25/11 A3019 RMK A01 T02450109  RH  042%=      5-min Rain = 0
KWE2 110052Z 14005KT 24/11 A3019 RMK A01 T02440109  RH  043%=      5-min Rain = 0
KWE2 110053Z 14006KT 24/11 A3019 RMK A01 T02430110  RH  043%=      5-min Rain = 0
KWE2 110054Z 14005KT 24/11 A3019 RMK A01 T02420110  RH  043%=      5-min Rain = 0
KWE2 110055Z 14005KT 24/11 A3019 RMK A01 T02410110  RH  044%=      5-min Rain = 0
KWE2 110056Z 14005KT 24/11 A3019 RMK A01 T02400111  RH  044%=      5-min Rain = 0
KWE2 110057Z 14005KT 24/11 A3019 RMK A01 T02390110  RH  044%=      5-min Rain = 0
KWE2 110058Z 14006KT 24/11 A3019 RMK A01 T02390109  RH  044%=      5-min Rain = 0
KWE2 110059Z 13006KT 24/11 A3019 RMK A01 T02380109  RH  044%=      5-min Rain = 0
KWE2 110100Z 13006KT 24/11 A3019 RMK A01 T02380112  RH  045%=      5-min Rain = 0
KWE2 110101Z 13005KT 24/11 A3019 RMK A01 T02370112  RH  045%=      5-min Rain = 0
KWE2 110102Z 13005KT 24/11 A3019 RMK A01 T02350113  RH  046%=      5-min Rain = 0
KWE2 110103Z 13005KT 23/11 A3019 RMK A01 T02340113  RH  047%=      5-min Rain = 0
KWE2 110104Z 13005KT 23/11 A3019 RMK A01 T02320112  RH  047%=      5-min Rain = 0
KWE2 110105Z 13005KT 23/11 A3019 RMK A01 T02310112  RH  047%=      5-min Rain = 0
KWE2 110106Z 14005KT 23/11 A3019 RMK A01 T02300112  RH  047%=      5-min Rain = 0
KWE2 110107Z 14005KT 23/11 A3019 RMK A01 T02290113  RH  048%=      5-min Rain = 0
KWE2 110108Z 14005KT 23/11 A3019 RMK A01 T02280113  RH  048%=      5-min Rain = 0
KWE2 110109Z 14005KT 23/11 A3019 RMK A01 T02260114  RH  049%=      5-min Rain = 0
KWE2 110110Z 14005KT 23/11 A3019 RMK A01 T02250114  RH  049%=      5-min Rain = 0
KWE2 110111Z 13005KT 22/11 A3019 RMK A01 T02230113  RH  050%=      5-min Rain = 0
KWE2 110112Z 13005KT 22/11 A3019 RMK A01 T02230113  RH  050%=      5-min Rain = 0
KWE2 110113Z 13005KT 22/11 A3019 RMK A01 T02220113  RH  050%=      5-min Rain = 0
KWE2 110114Z 13005KT 22/11 A3019 RMK A01 T02210113  RH  050%=      5-min Rain = 0
KWE2 110115Z 13005KT 22/11 A3019 RMK A01 T02210114  RH  051%=      5-min Rain = 0
KWE2 110116Z 13005KT 22/11 A3019 RMK A01 T02200113  RH  051%=      5-min Rain = 0
KWE2 110117Z 13005KT 22/11 A302 RMK A01 T02190113  RH  051%=      5-min Rain = 0
KWE2 110118Z 13005KT 22/11 A302 RMK A01 T02190114  RH  051%=      5-min Rain = 0
KWE2 110119Z 13006KT 22/11 A302 RMK A01 T02180113  RH  051%=      5-min Rain = 0
KWE2 110120Z 13006KT 22/11 A302 RMK A01 T02180114  RH  051%=      5-min Rain = 0
KWE2 110121Z 13006KT 22/11 A302 RMK A01 T02180114  RH  052%=      5-min Rain = 0
KWE2 110122Z 13006KT 22/11 A302 RMK A01 T02170113  RH  052%=      5-min Rain = 0
KWE2 110123Z 13006KT 22/11 A302 RMK A01 T02170114  RH  052%=      5-min Rain = 0
KWE2 110124Z 13006KT 22/11 A302 RMK A01 T02160114  RH  052%=      5-min Rain = 0
KWE2 110125Z 13006KT 22/11 A302 RMK A01 T02150114  RH  052%=      5-min Rain = 0
KWE2 110126Z 12006KT 21/11 A302 RMK A01 T02140113  RH  053%=      5-min Rain = 0
KWE2 110127Z 13006KT 21/11 A302 RMK A01 T02130112  RH  052%=      5-min Rain = 0
KWE2 110128Z 13006KT 21/11 A302 RMK A01 T02130112  RH  052%=      5-min Rain = 0
KWE2 110129Z 13006KT 21/11 A302 RMK A01 T02130111  RH  052%=      5-min Rain = 0
KWE2 110130Z 13006KT 21/11 A302 RMK A01 T02130110  RH  052%=      5-min Rain = 0
KWE2 110131Z 13006KT 21/11 A302 RMK A01 T02130111  RH  052%=      5-min Rain = 0
KWE2 110132Z 13006KT 21/11 A302 RMK A01 T02140112  RH  052%=      5-min Rain = 0
KWE2 110133Z 13006KT 21/11 A302 RMK A01 T02130112  RH  052%=      5-min Rain = 0
KWE2 110134Z 13006KT 21/11 A302 RMK A01 T02130112  RH  053%=      5-min Rain = 0
KWE2 110135Z 13006KT 21/11 A302 RMK A01 T02120112  RH  053%=      5-min Rain = 0
KWE2 110136Z 13006KT 21/11 A302 RMK A01 T02120112  RH  053%=      5-min Rain = 0
KWE2 110137Z 13006KT 21/11 A302 RMK A01 T02110111  RH  053%=      5-min Rain = 0
KWE2 110138Z 13006KT 21/11 A302 RMK A01 T02110111  RH  053%=      5-min Rain = 0
KWE2 110139Z 13006KT 21/11 A302 RMK A01 T02100111  RH  053%=      5-min Rain = 0
KWE2 110140Z 13006KT 21/11 A302 RMK A01 T02100110  RH  053%=      5-min Rain = 0
KWE2 110141Z 13005KT 21/11 A302 RMK A01 T02100111  RH  053%=      5-min Rain = 0
KWE2 110142Z 13006KT 21/11 A302 RMK A01 T02100113  RH  054%=      5-min Rain = 0
KWE2 110143Z 13006KT 21/11 A302 RMK A01 T02090113  RH  054%=      5-min Rain = 0
KWE2 110144Z 13006KT 21/11 A302 RMK A01 T02080113  RH  054%=      5-min Rain = 0
KWE2 110145Z 14006KT 21/11 A302 RMK A01 T02070112  RH  054%=      5-min Rain = 0
KWE2 110146Z 14006KT 21/11 A302 RMK A01 T02060111  RH  054%=      5-min Rain = 0
KWE2 110147Z 14006KT 21/11 A302 RMK A01 T02060111  RH  054%=      5-min Rain = 0
KWE2 110148Z 14006KT 21/11 A302 RMK A01 T02060112  RH  055%=      5-min Rain = 0
KWE2 110149Z 14006KT 21/11 A302 RMK A01 T02050112  RH  055%=      5-min Rain = 0
KWE2 110150Z 14006KT 20/11 A302 RMK A01 T02040112  RH  055%=      5-min Rain = 0
KWE2 110151Z 14006KT 20/11 A302 RMK A01 T02030111  RH  055%=      5-min Rain = 0
KWE2 110152Z 14006KT 20/11 A302 RMK A01 T02030110  RH  055%=      5-min Rain = 0
KWE2 110153Z 14006KT 20/11 A302 RMK A01 T02030110  RH  055%=      5-min Rain = 0
KWE2 110154Z 14006KT 20/11 A302 RMK A01 T02020111  RH  056%=      5-min Rain = 0
KWE2 110155Z 14006KT 20/11 A302 RMK A01 T02010111  RH  056%=      5-min Rain = 0
KWE2 110156Z 14006KT 20/11 A302 RMK A01 T02010110  RH  056%=      5-min Rain = 0
KWE2 110157Z 14006KT 20/11 A302 RMK A01 T02000110  RH  056%=      5-min Rain = 0
KWE2 110158Z 14006KT 20/11 A302 RMK A01 T01990110  RH  056%=      5-min Rain = 0
KWE2 110159Z 14006KT 20/11 A302 RMK A01 T01990109  RH  056%=      5-min Rain = 0
KWE2 110200Z 14006KT 20/11 A302 RMK A01 T01990109  RH  056%=      5-min Rain = 0
KWE2 110201Z 14006KT 20/11 A302 RMK A01 T01980106  RH  055%=      5-min Rain = 0
KWE2 110202Z 14006KT 20/11 A302 RMK A01 T01980107  RH  056%=      5-min Rain = 0
KWE2 110203Z 14007KT 20/11 A302 RMK A01 T01980107  RH  056%=      5-min Rain = 0
KWE2 110204Z 14006KT 20/11 A302 RMK A01 T01980106  RH  055%=      5-min Rain = 0
KWE2 110205Z 14007KT 20/11 A302 RMK A01 T01980105  RH  055%=      5-min Rain = 0
KWE2 110206Z 14006KT 20/11 A302 RMK A01 T01980106  RH  056%=      5-min Rain = 0
KWE2 110207Z 14007KT 20/11 A3021 RMK A01 T01980107  RH  056%=      5-min Rain = 0
KWE2 110208Z 14006KT 20/11 A3021 RMK A01 T01970106  RH  056%=      5-min Rain = 0
KWE2 110209Z 14006KT 20/11 A3021 RMK A01 T01970106  RH  056%=      5-min Rain = 0
KWE2 110210Z 14006KT 20/11 A3021 RMK A01 T01960106  RH  056%=      5-min Rain = 0
KWE2 110211Z 14006KT 20/11 A3021 RMK A01 T01960106  RH  056%=      5-min Rain = 0
KWE2 110212Z 14006KT 20/11 A3021 RMK A01 T01960106  RH  056%=      5-min Rain = 0
KWE2 110213Z 14006KT 20/11 A3021 RMK A01 T01960106  RH  056%=      5-min Rain = 0
KWE2 110214Z 14006KT 20/11 A3021 RMK A01 T01950106  RH  056%=      5-min Rain = 0
KWE2 110215Z 14006KT 20/11 A3021 RMK A01 T01950106  RH  056%=      5-min Rain = 0
KWE2 110216Z 14006KT 20/11 A3021 RMK A01 T01950106  RH  056%=      5-min Rain = 0
KWE2 110217Z 13006KT 20/11 A3021 RMK A01 T01950105  RH  056%=      5-min Rain = 0
KWE2 110218Z 13006KT 20/11 A3021 RMK A01 T01950106  RH  056%=      5-min Rain = 0
KWE2 110219Z 13006KT 20/10 A3021 RMK A01 T01950104  RH  056%=      5-min Rain = 0
KWE2 110220Z 13006KT 20/11 A3021 RMK A01 T01950106  RH  056%=      5-min Rain = 0
KWE2 110221Z 13006KT 20/11 A3021 RMK A01 T01950107  RH  056%=      5-min Rain = 0
KWE2 110222Z 14006KT 20/11 A3021 RMK A01 T01950107  RH  057%=      5-min Rain = 0
KWE2 110223Z 14006KT 19/11 A3021 RMK A01 T01940107  RH  057%=      5-min Rain = 0
KWE2 110224Z 13006KT 19/11 A3021 RMK A01 T01940107  RH  057%=      5-min Rain = 0
KWE2 110225Z 14006KT 19/11 A3021 RMK A01 T01930107  RH  057%=      5-min Rain = 0
KWE2 110226Z 14006KT 19/11 A3021 RMK A01 T01930107  RH  057%=      5-min Rain = 0
KWE2 110227Z 14006KT 19/11 A3022 RMK A01 T01920106  RH  058%=      5-min Rain = 0
KWE2 110228Z 14006KT 19/11 A3022 RMK A01 T01910107  RH  058%=      5-min Rain = 0
KWE2 110229Z 14006KT 19/11 A3022 RMK A01 T01910107  RH  058%=      5-min Rain = 0
KWE2 110230Z 14006KT 19/11 A3022 RMK A01 T01910107  RH  058%=      5-min Rain = 0
KWE2 110231Z 14006KT 19/11 A3022 RMK A01 T01900107  RH  059%=      5-min Rain = 0
KWE2 110232Z 13006KT 19/11 A3022 RMK A01 T01900107  RH  059%=      5-min Rain = 0
KWE2 110233Z 13006KT 19/11 A3022 RMK A01 T01890107  RH  059%=      5-min Rain = 0
KWE2 110234Z 13006KT 19/11 A3022 RMK A01 T01890107  RH  059%=      5-min Rain = 0
KWE2 110235Z 13006KT 19/11 A3022 RMK A01 T01890106  RH  058%=      5-min Rain = 0
KWE2 110236Z 13006KT 19/11 A3022 RMK A01 T01890106  RH  058%=      5-min Rain = 0
KWE2 110237Z 13006KT 19/11 A3022 RMK A01 T01900106  RH  058%=      5-min Rain = 0
KWE2 110238Z 13006KT 19/11 A3022 RMK A01 T01900107  RH  058%=      5-min Rain = 0
KWE2 110239Z 13006KT 19/11 A3022 RMK A01 T01900107  RH  058%=      5-min Rain = 0
KWE2 110240Z 13006KT 19/11 A3022 RMK A01 T01890107  RH  059%=      5-min Rain = 0
KWE2 110241Z 13006KT 19/11 A3022 RMK A01 T01890107  RH  059%=      5-min Rain = 0
KWE2 110242Z 13006KT 19/11 A3022 RMK A01 T01880107  RH  059%=      5-min Rain = 0
KWE2 110243Z 13006KT 19/11 A3022 RMK A01 T01880107  RH  059%=      5-min Rain = 0
KWE2 110244Z 13006KT 19/11 A3022 RMK A01 T01880107  RH  059%=      5-min Rain = 0
KWE2 110245Z 13006KT 19/11 A3022 RMK A01 T01880107  RH  059%=      5-min Rain = 0
KWE2 110246Z 13006KT 19/11 A3022 RMK A01 T01870107  RH  060%=      5-min Rain = 0
KWE2 110247Z 13006KT 19/11 A3022 RMK A01 T01870107  RH  060%=      5-min Rain = 0
KWE2 110248Z 14006KT 19/11 A3022 RMK A01 T01860107  RH  060%=      5-min Rain = 0
KWE2 110249Z 14006KT 19/11 A3022 RMK A01 T01860107  RH  060%=      5-min Rain = 0
KWE2 110250Z 14006KT 19/11 A3022 RMK A01 T01860107  RH  060%=      5-min Rain = 0
KWE2 110251Z 14006KT 19/11 A3022 RMK A01 T01860108  RH  060%=      5-min Rain = 0
KWE2 110252Z 14006KT 19/11 A3022 RMK A01 T01850108  RH  061%=      5-min Rain = 0
KWE2 110253Z 14006KT 19/11 A3022 RMK A01 T01850109  RH  061%=      5-min Rain = 0
KWE2 110254Z 14006KT 18/11 A3022 RMK A01 T01840108  RH  061%=      5-min Rain = 0
KWE2 110255Z 14006KT 18/11 A3022 RMK A01 T01840109  RH  062%=      5-min Rain = 0
KWE2 110256Z 14006KT 18/11 A3022 RMK A01 T01830108  RH  062%=      5-min Rain = 0
KWE2 110257Z 14006KT 18/11 A3022 RMK A01 T01820108  RH  062%=      5-min Rain = 0
KWE2 110258Z 13006KT 18/11 A3022 RMK A01 T01830107  RH  061%=      5-min Rain = 0
KWE2 110259Z 13006KT 18/11 A3022 RMK A01 T01830105  RH  060%=      5-min Rain = 0
KWE2 110300Z 13006KT 19/11 A3022 RMK A01 T01850105  RH  060%=      5-min Rain = 0
KWE2 110301Z 13005KT 19/10 A3022 RMK A01 T01860103  RH  058%=      5-min Rain = 0
KWE2 110302Z 13005KT 19/10 A3022 RMK A01 T01890104  RH  058%=      5-min Rain = 0
KWE2 110303Z 13005KT 19/11 A3022 RMK A01 T01890105  RH  058%=      5-min Rain = 0
KWE2 110304Z 13005KT 19/11 A3022 RMK A01 T01880106  RH  059%=      5-min Rain = 0
KWE2 110305Z 14005KT 19/11 A3022 RMK A01 T01870107  RH  060%=      5-min Rain = 0
KWE2 110306Z 14005KT 19/11 A3022 RMK A01 T01850108  RH  061%=      5-min Rain = 0
KWE2 110307Z 14005KT 18/11 A3022 RMK A01 T01840109  RH  062%=      5-min Rain = 0
KWE2 110308Z 14005KT 18/11 A3022 RMK A01 T01820108  RH  062%=      5-min Rain = 0
KWE2 110309Z 14005KT 18/11 A3022 RMK A01 T01820106  RH  061%=      5-min Rain = 0
KWE2 110310Z 14005KT 18/10 A3022 RMK A01 T01820104  RH  061%=      5-min Rain = 0
KWE2 110311Z 14006KT 18/11 A3022 RMK A01 T01830108  RH  062%=      5-min Rain = 0
KWE2 110312Z 13006KT 18/11 A3022 RMK A01 T01820108  RH  062%=      5-min Rain = 0
KWE2 110313Z 14005KT 18/11 A3022 RMK A01 T01810108  RH  062%=      5-min Rain = 0
KWE2 110314Z 14005KT 18/11 A3022 RMK A01 T01810109  RH  063%=      5-min Rain = 0
KWE2 110315Z 14005KT 18/11 A3022 RMK A01 T01800108  RH  063%=      5-min Rain = 0
KWE2 110316Z 14005KT 18/11 A3022 RMK A01 T01800109  RH  063%=      5-min Rain = 0
KWE2 110317Z 15004KT 18/11 A3022 RMK A01 T01790110  RH  064%=      5-min Rain = 0
KWE2 110318Z 15004KT 18/11 A3022 RMK A01 T01780110  RH  064%=      5-min Rain = 0
KWE2 110319Z 15005KT 18/11 A3022 RMK A01 T01780109  RH  064%=      5-min Rain = 0
KWE2 110320Z 15004KT 18/11 A3023 RMK A01 T01770108  RH  064%=      5-min Rain = 0
KWE2 110321Z 15004KT 18/11 A3023 RMK A01 T01770108  RH  064%=      5-min Rain = 0
KWE2 110322Z 15004KT 18/11 A3023 RMK A01 T01770107  RH  063%=      5-min Rain = 0
KWE2 110323Z 15004KT 18/11 A3023 RMK A01 T01780105  RH  062%=      5-min Rain = 0
KWE2 110324Z 14004KT 18/10 A3023 RMK A01 T01800104  RH  061%=      5-min Rain = 0
KWE2 110325Z 14004KT 18/11 A3023 RMK A01 T01810107  RH  062%=      5-min Rain = 0
KWE2 110326Z 14004KT 18/11 A3023 RMK A01 T01810108  RH  062%=      5-min Rain = 0
KWE2 110327Z 14004KT 18/11 A3023 RMK A01 T01800108  RH  062%=      5-min Rain = 0
KWE2 110328Z 14004KT 18/11 A3023 RMK A01 T01800106  RH  062%=      5-min Rain = 0
KWE2 110329Z 13004KT 18/10 A3023 RMK A01 T01800104  RH  061%=      5-min Rain = 0
KWE2 110330Z 13004KT 18/10 A3023 RMK A01 T01810103  RH  060%=      5-min Rain = 0
KWE2 110331Z 13004KT 18/10 A3023 RMK A01 T01820104  RH  060%=      5-min Rain = 0
KWE2 110332Z 13004KT 18/10 A3023 RMK A01 T01820104  RH  060%=      5-min Rain = 0
KWE2 110333Z 13004KT 18/10 A3023 RMK A01 T01830104  RH  060%=      5-min Rain = 0
KWE2 110334Z 13004KT 18/10 A3023 RMK A01 T01830104  RH  060%=      5-min Rain = 0
KWE2 110335Z 13004KT 18/10 A3023 RMK A01 T01830103  RH  059%=      5-min Rain = 0
KWE2 110336Z 12005KT 19/10 A3023 RMK A01 T01850104  RH  060%=      5-min Rain = 0
KWE2 110337Z 12005KT 19/11 A3023 RMK A01 T01850106  RH  060%=      5-min Rain = 0
KWE2 110338Z 13005KT 19/11 A3023 RMK A01 T01850105  RH  060%=      5-min Rain = 0
KWE2 110339Z 13005KT 18/10 A3023 RMK A01 T01840103  RH  059%=      5-min Rain = 0
KWE2 110340Z 13005KT 18/10 A3023 RMK A01 T01840102  RH  059%=      5-min Rain = 0
KWE2 110341Z 12005KT 18/10 A3023 RMK A01 T01840101  RH  058%=      5-min Rain = 0
KWE2 110342Z 11005KT 18/10 A3023 RMK A01 T01830102  RH  059%=      5-min Rain = 0
KWE2 110343Z 11005KT 18/10 A3023 RMK A01 T01830102  RH  059%=      5-min Rain = 0
KWE2 110344Z 11004KT 18/10 A3023 RMK A01 T01830102  RH  059%=      5-min Rain = 0
KWE2 110345Z 12005KT 18/10 A3023 RMK A01 T01830103  RH  059%=      5-min Rain = 0
KWE2 110346Z 12005KT 18/10 A3023 RMK A01 T01820104  RH  060%=      5-min Rain = 0
KWE2 110347Z 12004KT 18/11 A3023 RMK A01 T01810106  RH  062%=      5-min Rain = 0
KWE2 110348Z 12004KT 18/11 A3023 RMK A01 T01790106  RH  062%=      5-min Rain = 0
KWE2 110349Z 12004KT 18/11 A3023 RMK A01 T01780106  RH  062%=      5-min Rain = 0
KWE2 110350Z 12004KT 18/10 A3023 RMK A01 T01790104  RH  062%=      5-min Rain = 0
KWE2 110351Z 12004KT 18/10 A3023 RMK A01 T01790104  RH  062%=      5-min Rain = 0
KWE2 110352Z 12004KT 18/11 A3023 RMK A01 T01790105  RH  062%=      5-min Rain = 0
KWE2 110353Z 12004KT 18/11 A3023 RMK A01 T01780105  RH  063%=      5-min Rain = 0
KWE2 110354Z 12004KT 18/11 A3023 RMK A01 T01770105  RH  063%=      5-min Rain = 0
KWE2 110355Z 12004KT 18/11 A3023 RMK A01 T01760105  RH  063%=      5-min Rain = 0
KWE2 110356Z 12004KT 18/11 A3023 RMK A01 T01750106  RH  064%=      5-min Rain = 0
KWE2 110357Z 11004KT 17/11 A3023 RMK A01 T01740106  RH  064%=      5-min Rain = 0
KWE2 110358Z 11004KT 17/11 A3023 RMK A01 T01740105  RH  064%=      5-min Rain = 0
KWE2 110359Z 12004KT 17/10 A3023 RMK A01 T01740104  RH  063%=      5-min Rain = 0
KWE2 110400Z 11004KT 18/10 A3023 RMK A01 T01750103  RH  063%=      5-min Rain = 0
KWE2 110401Z 11004KT 18/10 A3023 RMK A01 T01760103  RH  062%=      5-min Rain = 0
KWE2 110402Z 11004KT 18/10 A3023 RMK A01 T01780103  RH  062%=      5-min Rain = 0
KWE2 110403Z 11004KT 18/10 A3023 RMK A01 T01780103  RH  061%=      5-min Rain = 0
KWE2 110404Z 10004KT 18/10 A3023 RMK A01 T01790103  RH  061%=      5-min Rain = 0
KWE2 110405Z 10004KT 18/10 A3023 RMK A01 T01790103  RH  061%=      5-min Rain = 0
KWE2 110406Z 11005KT 18/10 A3023 RMK A01 T01780102  RH  061%=      5-min Rain = 0
KWE2 110407Z 11005KT 18/10 A3023 RMK A01 T01770102  RH  061%=      5-min Rain = 0
KWE2 110408Z 11004KT 18/10 A3023 RMK A01 T01770102  RH  061%=      5-min Rain = 0
KWE2 110409Z 11004KT 18/10 A3023 RMK A01 T01770102  RH  061%=      5-min Rain = 0
KWE2 110410Z 11005KT 18/10 A3023 RMK A01 T01770101  RH  061%=      5-min Rain = 0
KWE2 110411Z 11005KT 18/10 A3023 RMK A01 T01770101  RH  061%=      5-min Rain = 0
KWE2 110412Z 11005KT 18/10 A3023 RMK A01 T01770100  RH  061%=      5-min Rain = 0
KWE2 110413Z 11006KT 18/10 A3023 RMK A01 T01770101  RH  061%=      5-min Rain = 0
KWE2 110414Z 11006KT 18/10 A3023 RMK A01 T01770101  RH  061%=      5-min Rain = 0
KWE2 110415Z 11006KT 18/10 A3023 RMK A01 T01770101  RH  061%=      5-min Rain = 0
KWE2 110416Z 11006KT 18/10 A3023 RMK A01 T01770101  RH  061%=      5-min Rain = 0
KWE2 110417Z 11005KT 18/10 A3023 RMK A01 T01770101  RH  061%=      5-min Rain = 0
KWE2 110418Z 11005KT 18/10 A3023 RMK A01 T01760100  RH  061%=      5-min Rain = 0
KWE2 110419Z 11005KT 18/10 A3023 RMK A01 T01770099  RH  060%=      5-min Rain = 0
KWE2 110420Z 11005KT 18/10 A3023 RMK A01 T01770100  RH  061%=      5-min Rain = 0
KWE2 110421Z 11005KT 18/10 A3023 RMK A01 T01750100  RH  061%=      5-min Rain = 0
KWE2 110422Z 12005KT 17/10 A3023 RMK A01 T01740099  RH  061%=      5-min Rain = 0
KWE2 110423Z 12005KT 17/10 A3023 RMK A01 T01740098  RH  061%=      5-min Rain = 0
KWE2 110424Z 12005KT 17/10 A3023 RMK A01 T01740099  RH  061%=      5-min Rain = 0
KWE2 110425Z 12005KT 17/10 A3023 RMK A01 T01730099  RH  062%=      5-min Rain = 0
KWE2 110426Z 12005KT 17/10 A3023 RMK A01 T01710099  RH  063%=      5-min Rain = 0
KWE2 110427Z 12005KT 17/10 A3023 RMK A01 T01700100  RH  063%=      5-min Rain = 0
KWE2 110428Z 12005KT 17/10 A3023 RMK A01 T01700100  RH  063%=      5-min Rain = 0
KWE2 110429Z 12005KT 17/10 A3023 RMK A01 T01700101  RH  064%=      5-min Rain = 0
KWE2 110430Z 11005KT 17/10 A3023 RMK A01 T01690100  RH  064%=      5-min Rain = 0
KWE2 110431Z 11005KT 17/10 A3023 RMK A01 T01690100  RH  064%=      5-min Rain = 0
KWE2 110432Z 11005KT 17/10 A3023 RMK A01 T01690100  RH  064%=      5-min Rain = 0
KWE2 110433Z 11005KT 17/10 A3023 RMK A01 T01690100  RH  064%=      5-min Rain = 0
KWE2 110434Z 12005KT 17/10 A3023 RMK A01 T01690100  RH  064%=      5-min Rain = 0
KWE2 110435Z 12005KT 17/10 A3023 RMK A01 T01690099  RH  063%=      5-min Rain = 0
KWE2 110436Z 12005KT 17/10 A3023 RMK A01 T01690099  RH  063%=      5-min Rain = 0
KWE2 110437Z 12005KT 17/10 A3023 RMK A01 T01690099  RH  063%=      5-min Rain = 0
KWE2 110438Z 11005KT 17/10 A3023 RMK A01 T01690098  RH  063%=      5-min Rain = 0
KWE2 110439Z 11005KT 17/10 A3023 RMK A01 T01700096  RH  062%=      5-min Rain = 0
KWE2 110440Z 11005KT 17/10 A3023 RMK A01 T01710096  RH  061%=      5-min Rain = 0
KWE2 110441Z 11005KT 17/10 A3023 RMK A01 T01720096  RH  061%=      5-min Rain = 0
KWE2 110442Z 10005KT 17/10 A3023 RMK A01 T01720095  RH  061%=      5-min Rain = 0
KWE2 110443Z 10005KT 17/10 A3023 RMK A01 T01720095  RH  060%=      5-min Rain = 0
KWE2 110444Z 11005KT 17/10 A3023 RMK A01 T01720095  RH  060%=      5-min Rain = 0
KWE2 110445Z 11005KT 17/10 A3023 RMK A01 T01730095  RH  060%=      5-min Rain = 0
KWE2 110446Z 11005KT 17/10 A3024 RMK A01 T01720095  RH  060%=      5-min Rain = 0
KWE2 110447Z 11005KT 17/10 A3024 RMK A01 T01730096  RH  061%=      5-min Rain = 0
KWE2 110448Z 11005KT 17/10 A3024 RMK A01 T01730096  RH  061%=      5-min Rain = 0
KWE2 110449Z 11006KT 17/10 A3024 RMK A01 T01720096  RH  061%=      5-min Rain = 0
KWE2 110450Z 10006KT 17/10 A3024 RMK A01 T01720096  RH  061%=      5-min Rain = 0
KWE2 110451Z 10005KT 17/10 A3024 RMK A01 T01720095  RH  060%=      5-min Rain = 0
KWE2 110452Z 10006KT 17/10 A3024 RMK A01 T01730095  RH  060%=      5-min Rain = 0
KWE2 110453Z 10005KT 17/10 A3024 RMK A01 T01740095  RH  060%=      5-min Rain = 0
KWE2 110454Z 10006KT 18/10 A3024 RMK A01 T01750095  RH  060%=      5-min Rain = 0
KWE2 110455Z 10006KT 18/10 A3024 RMK A01 T01750095  RH  060%=      5-min Rain = 0
KWE2 110456Z 10006KT 18/10 A3024 RMK A01 T01750095  RH  059%=      5-min Rain = 0
KWE2 110457Z 10006KT 18/10 A3024 RMK A01 T01750096  RH  059%=      5-min Rain = 0
KWE2 110458Z 10006KT 17/10 A3024 RMK A01 T01740096  RH  060%=      5-min Rain = 0
KWE2 110459Z 11006KT 17/10 A3024 RMK A01 T01740096  RH  060%=      5-min Rain = 0

Page generated in 0.1434 seconds.